M I D A S
Marine Information and Data Acquisition System
Tripno 1781 of the Zeeleeuw from 2009-09-21 06:46:06 to 2009-09-21 15:45:26
Back to CruiseResearch ActivitiesStationsMapUnderway DataData graphs

EquipmentUnitsComment
TimeDGPSUTC
LatitudeDGPSDM.mWGS84
LongitudeDGPSDM.mWGS84
TemperatureSBE03/SBE38deg celciusITS90
ConductivitySBE21S/mITS90
SalinitySBE21 Practical Salinity Units
ChlorophylAChelsea fluorimeterg/lCalibrated in Aceton
Missing or incorrect values are displayed as -999
Sea surface data collected by the RV Zeeleeuw from 2009-09-21 06:50:00 to 2009-09-21 15:55:05
                                                                                    Next 1000 lines
Time Latitude Longitude Temperature Conductivity Salinity ChlorophylA
2009-09-21 06:50:10 51°13.662 2°55.954 19.1013 0.027698 0.144307 8.158158
2009-09-21 06:50:15 51°13.662 2°55.951 19.0987 0.027698 0.144307 8.158158
2009-09-21 06:50:20 51°13.663 2°55.947 19.1049 0.027698 0.144312 8.158158
2009-09-21 06:50:26 51°13.664 2°55.941 19.0963 0.027698 0.144314 8.192982
2009-09-21 06:50:31 51°13.666 2°55.936 19.11 0.027698 0.144314 8.192982
2009-09-21 06:50:37 51°13.667 2°55.93 19.1006 0.027698 0.144314 8.192982
2009-09-21 06:50:43 51°13.669 2°55.923 19.1007 0.027698 0.144319 8.192982
2009-09-21 06:50:48 51°13.671 2°55.917 19.1123 0.027698 0.144321 8.192982
2009-09-21 06:50:54 51°13.673 2°55.909 19.1012 0.027698 0.144321 8.192982
2009-09-21 06:50:59 51°13.675 2°55.902 19.0993 0.027698 0.144323 8.192982
2009-09-21 06:51:04 51°13.677 2°55.894 19.1089 0.027698 0.144325 8.158158
2009-09-21 06:51:09 51°13.679 2°55.887 19.1171 0.027698 0.144325 8.158158
2009-09-21 06:51:14 51°13.68 2°55.879 19.1232 0.027698 0.144328 8.192982
2009-09-21 06:51:19 51°13.682 2°55.871 19.1216 0.027698 0.144328 8.192982
2009-09-21 06:51:24 51°13.683 2°55.863 19.1201 0.027698 0.14433 8.158158
2009-09-21 06:51:29 51°13.685 2°55.856 19.1187 0.027698 0.144332 8.192982
2009-09-21 06:51:34 51°13.686 2°55.848 19.1182 0.027698 0.144335 8.158158
2009-09-21 06:51:39 51°13.688 2°55.84 19.1182 0.027698 0.144335 8.158158
2009-09-21 06:51:44 51°13.689 2°55.832 19.1263 0.027698 0.144337 8.192982
2009-09-21 06:51:49 51°13.691 2°55.824 19.1302 0.027698 0.144337 8.158158
2009-09-21 06:51:54 51°13.692 2°55.816 19.134 0.027698 0.144339 8.158158
2009-09-21 06:51:59 51°13.693 2°55.809 19.1341 0.027698 0.144339 8.158158
2009-09-21 06:52:04 51°13.693 2°55.801 19.1288 0.027698 0.144341 8.158158
2009-09-21 06:52:09 51°13.693 2°55.794 19.1314 0.027698 0.144341 8.158158
2009-09-21 06:52:14 51°13.693 2°55.787 19.134 0.027698 0.144344 8.158158
2009-09-21 06:52:19 51°13.694 2°55.781 19.1407 0.027698 0.144344 8.158158
2009-09-21 06:52:24 51°13.694 2°55.774 19.1428 0.027698 0.144346 8.158158
2009-09-21 06:52:29 51°13.694 2°55.768 19.131 0.027698 0.144348 8.158158
2009-09-21 06:52:34 51°13.694 2°55.762 19.1297 0.027698 0.144348 8.192982
2009-09-21 06:52:39 51°13.694 2°55.757 19.1325 0.027698 0.144348 8.192982
2009-09-21 06:52:44 51°13.694 2°55.751 19.1375 0.027698 0.14435 8.158158
2009-09-21 06:52:49 51°13.694 2°55.747 19.139 0.027698 0.144353 8.158158
2009-09-21 06:52:53 51°13.694 2°55.745 19.1387 0.027698 0.14435 8.158158
2009-09-21 06:52:58 51°13.694 2°55.742 19.1423 0.027698 0.144353 8.158158
2009-09-21 06:53:03 51°13.694 2°55.74 19.1465 0.027698 0.144355 8.158158
2009-09-21 06:53:08 51°13.694 2°55.739 19.1497 0.027698 0.144355 8.158158
2009-09-21 06:53:13 51°13.695 2°55.738 19.1541 0.027698 0.144355 8.158158
2009-09-21 06:53:18 51°13.695 2°55.738 19.1496 0.027698 0.144357 8.158158
2009-09-21 06:53:23 51°13.696 2°55.738 19.152 0.027698 0.144357 8.192982
2009-09-21 06:53:28 51°13.697 2°55.739 19.1477 0.027698 0.144357 8.158158
2009-09-21 06:53:32 51°13.698 2°55.739 19.153 0.027698 0.144357 8.158158
2009-09-21 06:53:37 51°13.7 2°55.74 19.1519 0.027698 0.144357 8.158158
2009-09-21 06:53:42 51°13.701 2°55.741 19.1512 0.027698 0.144357 8.158158
2009-09-21 06:53:47 51°13.704 2°55.742 19.1366 0.027698 0.144359 8.158158
2009-09-21 06:53:52 51°13.706 2°55.742 19.1218 0.027698 0.144364 8.158158
2009-09-21 06:53:56 51°13.707 2°55.743 19.0735 0.027698 0.144371 8.158158
2009-09-21 06:54:01 51°13.709 2°55.743 19.1006 0.027698 0.144375 8.158158
2009-09-21 06:54:06 51°13.709 2°55.743 19.1041 0.027698 0.144375 8.158158
2009-09-21 06:54:11 51°13.71 2°55.742 19.1001 0.027698 0.144378 8.158158
2009-09-21 06:54:16 51°13.709 2°55.743 19.0753 0.027698 0.144382 8.158158
2009-09-21 06:54:20 51°13.709 2°55.742 19.108 0.027698 0.144387 8.158158
2009-09-21 06:54:25 51°13.708 2°55.742 19.133 0.027698 0.144387 8.158158
2009-09-21 06:54:30 51°13.706 2°55.742 19.1287 0.027698 0.144389 8.158158
2009-09-21 06:54:35 51°13.705 2°55.742 19.1389 0.027698 0.144389 8.158158
2009-09-21 06:54:40 51°13.705 2°55.741 19.1444 0.027698 0.144389 8.158158
2009-09-21 06:54:45 51°13.704 2°55.741 19.1481 0.027698 0.144387 8.158158
2009-09-21 06:54:50 51°13.704 2°55.74 19.1539 0.027698 0.144389 8.158158
2009-09-21 06:54:55 51°13.705 2°55.74 19.1602 0.027698 0.144389 8.158158
2009-09-21 06:55:00 51°13.706 2°55.739 19.1618 0.027698 0.144391 8.158158
2009-09-21 06:55:05 51°13.707 2°55.737 19.1595 0.027698 0.144391 8.158158
2009-09-21 06:55:11 51°13.71 2°55.735 19.1548 0.027698 0.144393 8.158158
2009-09-21 06:55:16 51°13.713 2°55.732 19.1551 0.027698 0.144396 8.158158
2009-09-21 06:55:20 51°13.716 2°55.73 19.1319 0.027698 0.144398 8.158158
2009-09-21 06:55:25 51°13.719 2°55.726 19.1322 0.027698 0.1444 8.158158
2009-09-21 06:55:30 51°13.723 2°55.722 19.1284 0.027698 0.144403 8.158158
2009-09-21 06:55:35 51°13.727 2°55.718 19.1238 0.027698 0.144403 8.158158
2009-09-21 06:55:40 51°13.732 2°55.714 19.1252 0.027698 0.144407 8.158158
2009-09-21 06:55:45 51°13.736 2°55.71 19.1266 0.027698 0.144412 8.158158
2009-09-21 06:55:51 51°13.742 2°55.704 19.1206 0.027698 0.144414 8.158158
2009-09-21 06:55:55 51°13.746 2°55.7 19.1192 0.027698 0.144416 8.158158
2009-09-21 06:56:00 51°13.752 2°55.695 19.1114 0.027698 0.144418 8.158158
2009-09-21 06:56:05 51°13.758 2°55.69 19.1063 0.027698 0.144418 8.158158
2009-09-21 06:56:11 51°13.764 2°55.683 19.0981 0.027698 0.144423 8.158158
2009-09-21 06:56:16 51°13.77 2°55.678 19.0967 0.027698 0.144425 8.158158
2009-09-21 06:56:21 51°13.776 2°55.673 19.0986 0.027698 0.14443 8.158158
2009-09-21 06:56:25 51°13.781 2°55.669 19.1014 0.027698 0.144432 8.158158
2009-09-21 06:56:31 51°13.788 2°55.662 19.1004 0.027698 0.144434 8.158158
2009-09-21 06:56:36 51°13.794 2°55.657 19.0892 0.027698 0.144434 8.158158
2009-09-21 06:56:41 51°13.801 2°55.652 19.0844 0.027698 0.144437 8.158158
2009-09-21 06:56:45 51°13.806 2°55.649 19.0713 0.027698 0.144441 8.158158
2009-09-21 06:56:51 51°13.813 2°55.644 19.0782 0.027698 0.144443 8.158158
2009-09-21 06:56:55 51°13.818 2°55.64 19.0791 0.027698 0.144446 8.158158
2009-09-21 06:57:01 51°13.825 2°55.636 19.0748 0.027698 0.14445 8.158158
2009-09-21 06:57:05 51°13.829 2°55.634 19.0785 0.027698 0.14445 8.158158
2009-09-21 06:57:11 51°13.836 2°55.631 19.0855 0.027698 0.14445 8.158158
2009-09-21 06:57:15 51°13.84 2°55.629 19.0941 0.027698 0.144452 8.158158
2009-09-21 06:57:21 51°13.847 2°55.627 19.0982 0.027698 0.144455 8.158158
2009-09-21 06:57:25 51°13.851 2°55.626 19.1033 0.027698 0.144457 8.158158
2009-09-21 06:57:31 51°13.856 2°55.625 19.1054 0.027698 0.144457 8.158158
2009-09-21 06:57:36 51°13.861 2°55.624 19.1191 0.027698 0.144457 8.158158
2009-09-21 06:57:41 51°13.866 2°55.624 19.1217 0.027698 0.144459 8.158158
2009-09-21 06:57:45 51°13.869 2°55.623 19.1245 0.027698 0.144462 8.158158
2009-09-21 06:57:51 51°13.875 2°55.623 19.1245 0.027698 0.144464 8.158158
2009-09-21 06:57:56 51°13.878 2°55.624 19.1319 0.027698 0.144464 8.158158
2009-09-21 06:58:01 51°13.883 2°55.624 19.1326 0.027698 0.144466 8.158158
2009-09-21 06:58:05 51°13.886 2°55.625 19.1313 0.027698 0.144466 8.158158
2009-09-21 06:58:11 51°13.89 2°55.626 19.1323 0.027698 0.144468 8.158158
2009-09-21 06:58:15 51°13.893 2°55.626 19.1353 0.027698 0.144471 8.158158
2009-09-21 06:58:21 51°13.897 2°55.628 19.1399 0.027698 0.144471 8.158158
2009-09-21 06:58:25 51°13.9 2°55.628 19.1428 0.027698 0.144473 8.158158
2009-09-21 06:58:31 51°13.904 2°55.63 19.1442 0.027698 0.144473 8.158158
2009-09-21 06:58:35 51°13.907 2°55.63 19.1451 0.027698 0.144473 8.158158
2009-09-21 06:58:41 51°13.911 2°55.632 19.1461 0.027698 0.144473 8.158158
2009-09-21 06:58:45 51°13.913 2°55.632 19.1466 0.027698 0.144475 8.158158
2009-09-21 06:58:50 51°13.917 2°55.633 19.1473 0.027698 0.144477 8.158158
2009-09-21 06:58:56 51°13.92 2°55.634 19.1469 0.027698 0.144477 8.158158
2009-09-21 06:59:01 51°13.923 2°55.635 19.1475 0.027698 0.144477 8.158158
2009-09-21 06:59:05 51°13.926 2°55.635 19.149 0.027698 0.144477 8.158158
2009-09-21 06:59:10 51°13.929 2°55.635 19.1515 0.027698 0.14448 8.158158
2009-09-21 06:59:15 51°13.931 2°55.636 19.1525 0.027698 0.14448 8.158158
2009-09-21 06:59:21 51°13.935 2°55.636 19.1485 0.027698 0.144482 8.158158
2009-09-21 06:59:25 51°13.937 2°55.636 19.1505 0.027698 0.144482 8.158158
2009-09-21 06:59:31 51°13.94 2°55.635 19.1483 0.027698 0.144484 8.158158
2009-09-21 06:59:35 51°13.942 2°55.635 19.142 0.027698 0.144484 8.158158
2009-09-21 06:59:41 51°13.945 2°55.635 19.1348 0.027698 0.144486 8.158158
2009-09-21 06:59:45 51°13.947 2°55.635 19.132 0.027698 0.144489 8.158158
2009-09-21 06:59:51 51°13.949 2°55.634 19.1288 0.027698 0.144491 8.158158
2009-09-21 06:59:55 51°13.951 2°55.634 19.1338 0.027698 0.144493 8.123334
2009-09-21 07:00:00 51°13.952 2°55.633 19.1367 0.027698 0.144493 8.158158
2009-09-21 07:00:05 51°13.954 2°55.633 19.1583 0.027698 0.144493 8.158158
2009-09-21 07:00:11 51°13.955 2°55.633 19.1697 0.027698 0.144493 8.123334
2009-09-21 07:00:15 51°13.956 2°55.633 19.1129 0.027698 0.144493 8.158158
2009-09-21 07:00:20 51°13.957 2°55.633 19.1401 0.027698 0.144498 8.158158
2009-09-21 07:00:25 51°13.957 2°55.633 19.1454 0.027698 0.1445 8.158158
2009-09-21 07:00:31 51°13.958 2°55.633 19.1358 0.027698 0.144502 8.123334
2009-09-21 07:00:36 51°13.957 2°55.633 19.1472 0.027698 0.144502 8.123334
2009-09-21 07:00:41 51°13.957 2°55.633 19.1567 0.027698 0.144505 8.158158
2009-09-21 07:00:45 51°13.956 2°55.634 19.1718 0.027698 0.144507 8.123334
2009-09-21 07:00:51 51°13.955 2°55.634 19.1732 0.027698 0.144505 8.123334
2009-09-21 07:00:56 51°13.954 2°55.635 19.1667 0.027698 0.144507 8.158158
2009-09-21 07:01:01 51°13.954 2°55.635 19.1701 0.027698 0.144507 8.123334
2009-09-21 07:01:06 51°13.953 2°55.635 19.1662 0.027698 0.144507 8.123334
2009-09-21 07:01:12 51°13.953 2°55.635 19.1643 0.027698 0.144509 8.123334
2009-09-21 07:01:16 51°13.953 2°55.635 19.1637 0.027698 0.144511 8.158158
2009-09-21 07:01:21 51°13.952 2°55.635 19.1635 0.027698 0.144511 8.123334
2009-09-21 07:01:27 51°13.952 2°55.635 19.1637 0.027698 0.144511 8.158158
2009-09-21 07:01:32 51°13.951 2°55.636 19.1635 0.027698 0.144514 8.123334
2009-09-21 07:01:36 51°13.951 2°55.636 19.1635 0.027698 0.144514 8.123334
2009-09-21 07:01:41 51°13.951 2°55.636 19.1649 0.027698 0.144514 8.158158
2009-09-21 07:01:46 51°13.95 2°55.636 19.1675 0.027698 0.144516 8.123334
2009-09-21 07:01:51 51°13.95 2°55.636 19.1638 0.027698 0.144518 8.158158
2009-09-21 07:01:56 51°13.95 2°55.636 19.1572 0.027698 0.144521 8.123334
2009-09-21 07:02:01 51°13.95 2°55.636 19.1595 0.027698 0.144521 8.158158
2009-09-21 07:02:05 51°13.95 2°55.636 19.1608 0.027698 0.144521 8.158158
2009-09-21 07:02:11 51°13.949 2°55.636 19.1665 0.027698 0.144523 8.123334
2009-09-21 07:02:16 51°13.949 2°55.636 19.165 0.027698 0.144523 8.158158
2009-09-21 07:02:21 51°13.949 2°55.636 19.1651 0.027698 0.144525 8.123334
2009-09-21 07:02:25 51°13.949 2°55.637 19.171 0.027698 0.144527 8.123334
2009-09-21 07:02:31 51°13.948 2°55.637 19.1722 0.027698 0.144527 8.123334
2009-09-21 07:02:35 51°13.948 2°55.637 19.1649 0.027698 0.144527 8.123334
2009-09-21 07:02:41 51°13.948 2°55.637 19.1664 0.027698 0.14453 8.123334
2009-09-21 07:02:45 51°13.948 2°55.637 19.1745 0.027698 0.14453 8.158158
2009-09-21 07:02:51 51°13.948 2°55.637 19.1739 0.027698 0.144532 8.123334
2009-09-21 07:02:56 51°13.948 2°55.637 19.1765 0.027698 0.144532 8.123334
2009-09-21 07:03:01 51°13.949 2°55.637 19.1875 0.027698 0.14453 8.123334
2009-09-21 07:03:05 51°13.949 2°55.636 19.1914 0.027698 0.14453 8.123334
2009-09-21 07:03:11 51°13.951 2°55.635 19.195 0.027698 0.144532 8.123334
2009-09-21 07:03:16 51°13.952 2°55.633 19.1946 0.027698 0.14453 8.123334
2009-09-21 07:03:21 51°13.954 2°55.631 19.1942 0.027698 0.144532 8.123334
2009-09-21 07:03:25 51°13.956 2°55.629 19.1927 0.027698 0.144532 8.123334
2009-09-21 07:03:30 51°13.959 2°55.626 19.1902 0.027698 0.144534 8.123334
2009-09-21 07:03:36 51°13.963 2°55.622 19.1884 0.027698 0.144534 8.123334
2009-09-21 07:03:41 51°13.967 2°55.618 19.1858 0.027698 0.144534 8.123334
2009-09-21 07:03:45 51°13.971 2°55.614 19.1847 0.027698 0.144536 8.123334
2009-09-21 07:03:50 51°13.975 2°55.61 19.1836 0.027698 0.144536 8.123334
2009-09-21 07:03:56 51°13.982 2°55.603 19.1817 0.027698 0.144539 8.123334
2009-09-21 07:04:01 51°13.988 2°55.597 19.1806 0.027698 0.144541 8.158158
2009-09-21 07:04:05 51°13.993 2°55.592 19.1791 0.027698 0.144541 8.158158
2009-09-21 07:04:11 51°14.001 2°55.583 19.1812 0.027698 0.144541 8.123334
2009-09-21 07:04:16 51°14.008 2°55.576 19.1831 0.027698 0.144543 8.123334
2009-09-21 07:04:21 51°14.016 2°55.568 19.1893 0.027698 0.144543 8.123334
2009-09-21 07:04:25 51°14.022 2°55.56 19.179 0.027698 0.144546 8.123334
2009-09-21 07:04:31 51°14.032 2°55.548 19.1591 0.027698 0.144552 8.123334
2009-09-21 07:04:36 51°14.041 2°55.537 19.1513 0.027698 0.144552 8.123334
2009-09-21 07:04:41 51°14.05 2°55.527 19.1443 0.027698 0.144555 8.123334
2009-09-21 07:04:45 51°14.057 2°55.518 19.1406 0.027698 0.144557 8.123334
2009-09-21 07:04:51 51°14.069 2°55.504 19.1266 0.027698 0.144559 8.123334
2009-09-21 07:04:56 51°14.078 2°55.492 19.1118 0.027698 0.144564 8.123334
2009-09-21 07:05:01 51°14.088 2°55.48 19.1386 0.027698 0.144561 8.123334
2009-09-21 07:05:05 51°14.096 2°55.471 19.13 0.027698 0.144561 8.123334
2009-09-21 07:05:11 51°14.109 2°55.456 19.1284 0.027698 0.144566 8.123334
2009-09-21 07:05:16 51°14.119 2°55.443 19.1513 0.027698 0.144571 8.123334
2009-09-21 07:05:21 51°14.13 2°55.431 19.1263 0.027698 0.144571 8.123334
2009-09-21 07:05:25 51°14.138 2°55.421 19.1201 0.027698 0.144573 8.123334
2009-09-21 07:05:31 51°14.151 2°55.405 19.1444 0.027698 0.144573 8.123334
2009-09-21 07:05:36 51°14.162 2°55.391 19.123 0.027698 0.144573 8.123334
2009-09-21 07:05:41 51°14.172 2°55.377 19.1415 0.027698 0.144577 8.123334
2009-09-21 07:05:45 51°14.181 2°55.366 19.1563 0.027698 0.144577 8.123334
2009-09-21 07:05:51 51°14.193 2°55.349 19.1684 0.027698 0.144577 8.123334
2009-09-21 07:05:55 51°14.202 2°55.338 19.1853 0.027698 0.144577 8.123334
2009-09-21 07:06:01 51°14.214 2°55.321 19.1794 0.027698 0.144577 8.123334
2009-09-21 07:06:05 51°14.222 2°55.308 19.1344 0.027698 0.144577 8.123334
2009-09-21 07:06:11 51°14.234 2°55.29 19.1425 0.027698 0.14458 8.123334
2009-09-21 07:06:15 51°14.241 2°55.277 19.1793 0.027698 0.144584 8.123334
2009-09-21 07:06:21 51°14.253 2°55.258 19.1854 0.027698 0.144582 8.123334
2009-09-21 07:06:25 51°14.262 2°55.246 19.1829 0.027698 0.144584 8.123334
2009-09-21 07:06:31 51°14.273 2°55.226 19.189 0.027698 0.144584 8.123334
2009-09-21 07:06:36 51°14.283 2°55.209 19.1652 0.027698 0.144584 8.123334
2009-09-21 07:06:41 51°14.292 2°55.191 19.1474 0.027698 0.144586 8.123334
2009-09-21 07:06:45 51°14.299 2°55.177 19.1833 0.027698 0.144589 8.123334
2009-09-21 07:06:51 51°14.31 2°55.155 19.1768 0.027698 0.144586 8.123334
2009-09-21 07:06:56 51°14.32 2°55.137 19.1679 0.027698 0.144586 8.123334
2009-09-21 07:07:01 51°14.329 2°55.118 19.1848 0.027698 0.144591 8.123334
2009-09-21 07:07:05 51°14.337 2°55.103 19.1729 0.027698 0.144591 8.123334
2009-09-21 07:07:11 51°14.347 2°55.079 19.1678 0.027698 0.144591 8.123334
2009-09-21 07:07:16 51°14.356 2°55.059 19.1341 0.027698 0.144593 8.123334
2009-09-21 07:07:21 51°14.365 2°55.038 19.1143 0.027698 0.144596 8.123334
2009-09-21 07:07:25 51°14.372 2°55.022 19.0987 0.027698 0.1446 8.123334
2009-09-21 07:07:30 51°14.382 2°55.004 19.0955 0.027698 0.1446 8.158158
2009-09-21 07:07:36 51°14.394 2°54.982 19.0889 0.027698 0.1446 8.158158
2009-09-21 07:07:41 51°14.405 2°54.965 19.1289 0.027698 0.144602 8.158158
2009-09-21 07:07:45 51°14.415 2°54.952 19.1262 0.027698 0.144602 8.158158
2009-09-21 07:07:50 51°14.427 2°54.936 19.1428 0.027698 0.144602 8.158158
2009-09-21 07:07:56 51°14.442 2°54.918 19.158 0.027698 0.144602 8.158158
2009-09-21 07:08:01 51°14.455 2°54.904 19.1591 0.027698 0.1446 8.158158
2009-09-21 07:08:05 51°14.465 2°54.893 19.1499 0.027698 0.1446 8.158158
2009-09-21 07:08:10 51°14.478 2°54.878 19.1565 0.027698 0.144602 8.192982
2009-09-21 07:08:15 51°14.491 2°54.862 19.153 0.027698 0.144605 8.158158
2009-09-21 07:08:21 51°14.506 2°54.844 19.1204 0.027698 0.144607 8.192982
2009-09-21 07:08:25 51°14.516 2°54.832 19.1488 0.027698 0.144605 8.192982
2009-09-21 07:08:30 51°14.529 2°54.818 19.1487 0.027698 0.144602 8.192982
2009-09-21 07:08:36 51°14.545 2°54.801 19.1541 0.027698 0.144602 8.192982
2009-09-21 07:08:41 51°14.558 2°54.787 19.1446 0.027698 0.1446 8.192982
2009-09-21 07:08:45 51°14.569 2°54.775 19.1581 0.027698 0.144602 8.192982
2009-09-21 07:08:51 51°14.584 2°54.758 19.1729 0.027698 0.144602 8.192982
2009-09-21 07:08:55 51°14.595 2°54.746 19.1545 0.027698 0.1446 8.192982
2009-09-21 07:09:01 51°14.611 2°54.729 19.1511 0.027698 0.144598 8.192982
2009-09-21 07:09:05 51°14.621 2°54.717 19.1615 0.027698 0.144598 8.192982
2009-09-21 07:09:11 51°14.637 2°54.7 19.1701 0.027595 0.144063 8.192982
2009-09-21 07:09:15 51°14.647 2°54.689 19.1729 0.027698 0.144598 8.192982
2009-09-21 07:09:20 51°14.66 2°54.674 19.1393 0.027698 0.144596 8.192982
2009-09-21 07:09:25 51°14.673 2°54.659 19.1609 0.027698 0.144596 8.192982
2009-09-21 07:09:31 51°14.688 2°54.641 19.146 0.027698 0.1446 8.192982
2009-09-21 07:09:36 51°14.701 2°54.626 19.1461 0.027698 0.1446 8.192982
2009-09-21 07:09:41 51°14.714 2°54.612 19.1577 0.027698 0.1446 8.192982
2009-09-21 07:09:45 51°14.724 2°54.601 19.1389 0.027698 0.1446 8.158158
2009-09-21 07:09:50 51°14.737 2°54.587 19.1534 0.027698 0.1446 8.192982
2009-09-21 07:09:56 51°14.753 2°54.571 19.1544 0.027698 0.1446 8.192982
2009-09-21 07:10:01 51°14.766 2°54.558 19.1702 0.027698 0.144607 8.192982
2009-09-21 07:10:05 51°14.777 2°54.547 19.1682 0.027698 0.144607 8.192982
2009-09-21 07:10:10 51°14.79 2°54.534 19.1581 0.027698 0.144605 8.158158
2009-09-21 07:10:16 51°14.807 2°54.519 19.158 0.027698 0.144612 8.192982
2009-09-21 07:10:21 51°14.82 2°54.507 19.1685 0.027698 0.144614 8.192982
2009-09-21 07:10:25 51°14.83 2°54.496 19.1391 0.027698 0.144618 8.192982
2009-09-21 07:10:30 51°14.844 2°54.483 19.1574 0.027698 0.144621 8.158158
2009-09-21 07:10:35 51°14.857 2°54.47 19.1651 0.027698 0.144621 8.158158
2009-09-21 07:10:41 51°14.873 2°54.455 19.1545 0.027698 0.144625 8.192982
2009-09-21 07:10:45 51°14.884 2°54.445 19.1599 0.027595 0.144094 8.158158
2009-09-21 07:10:50 51°14.897 2°54.432 19.1758 0.027698 0.14463 8.158158
2009-09-21 07:10:56 51°14.913 2°54.417 19.1711 0.027698 0.144634 8.158158
2009-09-21 07:11:01 51°14.927 2°54.404 19.1491 0.027698 0.144639 8.158158
2009-09-21 07:11:05 51°14.937 2°54.395 19.1688 0.027698 0.144639 8.158158
2009-09-21 07:11:11 51°14.953 2°54.38 19.1749 0.027698 0.144643 8.158158
2009-09-21 07:11:16 51°14.966 2°54.368 19.1718 0.027698 0.144646 8.158158
2009-09-21 07:11:21 51°14.979 2°54.356 19.1763 0.027698 0.14465 8.158158
2009-09-21 07:11:25 51°14.99 2°54.346 19.1886 0.027698 0.14465 8.192982
2009-09-21 07:11:31 51°15.006 2°54.332 19.1782 0.027698 0.144653 8.158158
2009-09-21 07:11:36 51°15.019 2°54.319 19.1746 0.027698 0.144653 8.158158
2009-09-21 07:11:41 51°15.032 2°54.307 19.166 0.027698 0.144659 8.158158
2009-09-21 07:11:45 51°15.042 2°54.297 19.1665 0.027698 0.144664 8.192982
2009-09-21 07:11:51 51°15.058 2°54.283 19.1559 0.027698 0.144673 8.192982
2009-09-21 07:11:56 51°15.072 2°54.271 19.1686 0.027698 0.144673 8.158158
2009-09-21 07:12:01 51°15.086 2°54.259 19.159 0.027698 0.144684 8.192982
2009-09-21 07:12:05 51°15.096 2°54.249 19.151 0.027698 0.144684 8.192982
2009-09-21 07:12:10 51°15.11 2°54.236 19.1496 0.027698 0.144698 8.192982
2009-09-21 07:12:16 51°15.126 2°54.222 19.1825 0.027698 0.144705 8.158158
2009-09-21 07:12:21 51°15.139 2°54.21 19.1666 0.027698 0.144712 8.158158
2009-09-21 07:12:25 51°15.15 2°54.199 19.1617 0.027698 0.144721 8.158158
2009-09-21 07:12:31 51°15.167 2°54.184 19.1653 0.027698 0.14473 8.158158
2009-09-21 07:12:36 51°15.18 2°54.171 19.1546 0.027698 0.14473 8.158158
2009-09-21 07:12:41 51°15.194 2°54.159 19.1552 0.027698 0.144741 8.158158
2009-09-21 07:12:45 51°15.205 2°54.149 19.1808 0.027698 0.144748 8.158158
2009-09-21 07:12:51 51°15.221 2°54.133 19.1772 0.027698 0.144753 8.158158
2009-09-21 07:12:56 51°15.234 2°54.12 19.1679 0.027698 0.144762 8.158158
2009-09-21 07:13:01 51°15.248 2°54.107 19.1674 0.027698 0.144771 8.192982
2009-09-21 07:13:05 51°15.258 2°54.097 19.1727 0.027698 0.144771 8.192982
2009-09-21 07:13:11 51°15.275 2°54.081 19.1591 0.027698 0.144778 8.158158
2009-09-21 07:13:15 51°15.285 2°54.071 19.1718 0.027698 0.144785 8.192982
2009-09-21 07:13:20 51°15.299 2°54.058 19.1849 0.027698 0.144792 8.158158
2009-09-21 07:13:25 51°15.312 2°54.045 19.1705 0.027698 0.144798 8.158158
2009-09-21 07:13:31 51°15.328 2°54.03 19.1789 0.027698 0.144805 8.158158
2009-09-21 07:13:36 51°15.342 2°54.017 19.1862 0.027698 0.144805 8.158158
2009-09-21 07:13:41 51°15.355 2°54.004 19.1724 0.027698 0.144812 8.192982
2009-09-21 07:13:45 51°15.366 2°53.994 19.1827 0.027698 0.144819 8.158158
2009-09-21 07:13:51 51°15.382 2°53.979 19.1719 0.027698 0.144824 8.158158
2009-09-21 07:13:56 51°15.396 2°53.967 19.1918 0.027698 0.14483 8.192982
2009-09-21 07:14:01 51°15.41 2°53.954 19.1782 0.027698 0.144837 8.158158
2009-09-21 07:14:05 51°15.42 2°53.944 19.1449 0.027698 0.144837 8.158158
2009-09-21 07:14:11 51°15.436 2°53.928 19.1765 0.027698 0.144846 8.192982
2009-09-21 07:14:16 51°15.45 2°53.916 19.1866 0.027698 0.144851 8.192982
2009-09-21 07:14:21 51°15.463 2°53.903 19.1693 0.027698 0.144856 8.158158
2009-09-21 07:14:25 51°15.474 2°53.893 19.1847 0.027698 0.144858 8.192982
2009-09-21 07:14:31 51°15.49 2°53.877 19.1784 0.027698 0.144862 8.158158
2009-09-21 07:14:36 51°15.504 2°53.864 19.1528 0.027698 0.144862 8.158158
2009-09-21 07:14:41 51°15.517 2°53.851 19.1762 0.027698 0.144872 8.158158
2009-09-21 07:14:45 51°15.528 2°53.84 19.1907 0.027698 0.144876 8.158158
2009-09-21 07:14:51 51°15.544 2°53.825 19.1646 0.027698 0.144883 8.158158
2009-09-21 07:14:56 51°15.558 2°53.812 19.1727 0.027698 0.144892 8.192982
2009-09-21 07:15:01 51°15.572 2°53.799 19.1907 0.027698 0.144899 8.158158
2009-09-21 07:15:05 51°15.582 2°53.789 19.1706 0.027698 0.144899 8.158158
2009-09-21 07:15:11 51°15.599 2°53.773 19.1898 0.027698 0.144906 8.192982
2009-09-21 07:15:16 51°15.612 2°53.76 19.1712 0.027698 0.144915 8.158158
2009-09-21 07:15:21 51°15.626 2°53.747 19.1924 0.027698 0.144929 8.158158
2009-09-21 07:15:25 51°15.637 2°53.737 19.1783 0.027698 0.144943 8.158158
2009-09-21 07:15:31 51°15.654 2°53.721 19.1803 0.027698 0.144956 8.158158
2009-09-21 07:15:36 51°15.667 2°53.708 19.1887 0.027698 0.144956 8.158158
2009-09-21 07:15:41 51°15.681 2°53.695 19.1957 0.027698 0.144975 8.192982
2009-09-21 07:15:45 51°15.692 2°53.685 19.1923 0.027698 0.144991 8.192982
2009-09-21 07:15:50 51°15.706 2°53.672 19.1682 0.027698 0.145007 8.192982
2009-09-21 07:15:56 51°15.722 2°53.657 19.187 0.027698 0.14502 8.192982
2009-09-21 07:16:01 51°15.736 2°53.643 19.1771 0.027698 0.145036 8.158158
2009-09-21 07:16:05 51°15.747 2°53.633 19.1946 0.027698 0.145036 8.158158
2009-09-21 07:16:11 51°15.763 2°53.618 19.1885 0.027698 0.14505 8.158158
2009-09-21 07:16:16 51°15.777 2°53.604 19.178 0.027595 0.144527 8.192982
2009-09-21 07:16:21 51°15.791 2°53.591 19.183 0.027698 0.145075 8.158158
2009-09-21 07:16:25 51°15.802 2°53.581 19.1738 0.027698 0.145085 8.158158
2009-09-21 07:16:31 51°15.818 2°53.565 19.1693 0.027698 0.145096 8.158158
2009-09-21 07:16:36 51°15.832 2°53.552 19.2044 0.027698 0.145096 8.158158
2009-09-21 07:16:41 51°15.846 2°53.54 19.1877 0.027595 0.144568 8.158158
2009-09-21 07:16:45 51°15.857 2°53.529 19.1686 0.027698 0.145115 8.192982
2009-09-21 07:16:51 51°15.874 2°53.514 19.1859 0.027698 0.145126 8.158158
2009-09-21 07:16:56 51°15.888 2°53.501 19.1731 0.027595 0.144598 8.192982
2009-09-21 07:17:01 51°15.902 2°53.488 19.1844 0.027595 0.144607 8.192982
2009-09-21 07:17:05 51°15.912 2°53.478 19.195 0.027595 0.144607 8.192982
2009-09-21 07:17:11 51°15.929 2°53.464 19.1867 0.027595 0.144618 8.158158
2009-09-21 07:17:16 51°15.943 2°53.451 19.1819 0.027595 0.144623 8.158158
2009-09-21 07:17:21 51°15.957 2°53.438 19.1796 0.027595 0.144634 8.192982
2009-09-21 07:17:25 51°15.968 2°53.427 19.1778 0.027595 0.144641 8.158158
2009-09-21 07:17:31 51°15.985 2°53.412 19.1934 0.027595 0.14465 8.158158
2009-09-21 07:17:35 51°15.996 2°53.402 19.1853 0.027595 0.14465 8.158158
2009-09-21 07:17:41 51°16.012 2°53.386 19.1711 0.027698 0.145195 8.158158
2009-09-21 07:17:45 51°16.023 2°53.376 19.1786 0.027595 0.144662 8.192982
2009-09-21 07:17:51 51°16.04 2°53.36 19.1881 0.027595 0.144666 8.158158
2009-09-21 07:17:55 51°16.051 2°53.35 19.183 0.027595 0.144669 8.158158
2009-09-21 07:18:00 51°16.065 2°53.338 19.1996 0.027595 0.144669 8.158158
2009-09-21 07:18:05 51°16.079 2°53.325 19.187 0.027595 0.144669 8.158158
2009-09-21 07:18:11 51°16.096 2°53.311 19.2015 0.027595 0.144673 8.158158
2009-09-21 07:18:16 51°16.11 2°53.298 19.1937 0.027595 0.144678 8.192982
2009-09-21 07:18:21 51°16.124 2°53.285 19.1981 0.027595 0.144678 8.192982
2009-09-21 07:18:25 51°16.135 2°53.275 19.1963 0.027595 0.144678 8.158158
2009-09-21 07:18:31 51°16.151 2°53.259 19.1971 0.027595 0.144682 8.158158
2009-09-21 07:18:36 51°16.165 2°53.246 19.1761 0.027595 0.144682 8.158158
2009-09-21 07:18:41 51°16.179 2°53.233 19.1939 0.027595 0.144687 8.158158
2009-09-21 07:18:45 51°16.19 2°53.222 19.1799 0.027595 0.144692 8.192982
2009-09-21 07:18:51 51°16.206 2°53.206 19.1778 0.027595 0.144701 8.158158
2009-09-21 07:18:56 51°16.22 2°53.193 19.2023 0.027595 0.14471 8.158158
2009-09-21 07:19:01 51°16.233 2°53.18 19.1765 0.027595 0.144719 8.158158
2009-09-21 07:19:05 51°16.245 2°53.17 19.2032 0.027595 0.144719 8.158158
2009-09-21 07:19:11 51°16.261 2°53.156 19.2036 0.027595 0.14473 8.158158
2009-09-21 07:19:16 51°16.275 2°53.143 19.2011 0.027595 0.14474 8.158158
2009-09-21 07:19:21 51°16.289 2°53.13 19.177 0.027595 0.144751 8.158158
2009-09-21 07:19:25 51°16.3 2°53.12 19.1814 0.027595 0.144763 8.158158
2009-09-21 07:19:31 51°16.316 2°53.105 19.1689 0.027595 0.144772 8.192982
2009-09-21 07:19:36 51°16.33 2°53.092 19.1778 0.027595 0.144772 8.192982
2009-09-21 07:19:41 51°16.344 2°53.08 19.1895 0.027595 0.144779 8.158158
2009-09-21 07:19:45 51°16.355 2°53.07 19.191 0.027595 0.144786 8.158158
2009-09-21 07:19:51 51°16.371 2°53.054 19.1908 0.027595 0.144792 8.158158
2009-09-21 07:19:56 51°16.385 2°53.041 19.2085 0.027595 0.144802 8.158158
2009-09-21 07:20:01 51°16.399 2°53.029 19.1978 0.027595 0.144806 8.158158
2009-09-21 07:20:05 51°16.41 2°53.018 19.1841 0.027595 0.144806 8.158158
2009-09-21 07:20:11 51°16.426 2°53.003 19.1875 0.027595 0.144813 8.158158
2009-09-21 07:20:16 51°16.44 2°52.99 19.2074 0.027595 0.14482 8.158158
2009-09-21 07:20:21 51°16.453 2°52.978 19.1858 0.027595 0.144825 8.192982
2009-09-21 07:20:25 51°16.464 2°52.967 19.2029 0.027595 0.144831 8.158158
2009-09-21 07:20:31 51°16.481 2°52.952 19.2059 0.027595 0.144838 8.158158
2009-09-21 07:20:36 51°16.494 2°52.94 19.206 0.027595 0.144838 8.158158
2009-09-21 07:20:41 51°16.508 2°52.928 19.2024 0.027595 0.144845 8.158158
2009-09-21 07:20:45 51°16.519 2°52.918 19.1832 0.027595 0.144854 8.158158
2009-09-21 07:20:51 51°16.536 2°52.903 19.2083 0.027595 0.144861 8.158158
2009-09-21 07:20:56 51°16.55 2°52.891 19.2046 0.027595 0.144868 8.192982
2009-09-21 07:21:01 51°16.564 2°52.879 19.2115 0.027595 0.144877 8.158158
2009-09-21 07:21:05 51°16.575 2°52.87 19.2037 0.027595 0.144877 8.158158
2009-09-21 07:21:11 51°16.592 2°52.856 19.2072 0.027595 0.144882 8.192982
2009-09-21 07:21:16 51°16.606 2°52.844 19.205 0.027595 0.144889 8.158158
2009-09-21 07:21:21 51°16.62 2°52.832 19.2052 0.027595 0.144894 8.158158
2009-09-21 07:21:25 51°16.631 2°52.823 19.1902 0.027595 0.1449 8.158158
2009-09-21 07:21:30 51°16.645 2°52.811 19.2058 0.027595 0.144907 8.158158
2009-09-21 07:21:36 51°16.661 2°52.797 19.2112 0.027595 0.144907 8.158158
2009-09-21 07:21:41 51°16.676 2°52.785 19.2116 0.027595 0.144914 8.192982
2009-09-21 07:21:45 51°16.687 2°52.776 19.2085 0.027595 0.144919 8.158158
2009-09-21 07:21:51 51°16.704 2°52.763 19.2026 0.027595 0.144926 8.158158
2009-09-21 07:21:55 51°16.715 2°52.755 19.2038 0.027595 0.14493 8.158158
2009-09-21 07:22:01 51°16.732 2°52.742 19.217 0.027595 0.144935 8.192982
2009-09-21 07:22:05 51°16.743 2°52.734 19.2201 0.027595 0.144935 8.192982
2009-09-21 07:22:10 51°16.757 2°52.723 19.2066 0.027595 0.144942 8.158158
2009-09-21 07:22:16 51°16.774 2°52.71 19.1979 0.027595 0.144946 8.158158
2009-09-21 07:22:21 51°16.788 2°52.7 19.2169 0.027595 0.144949 8.158158
2009-09-21 07:22:25 51°16.799 2°52.691 19.2157 0.027595 0.144951 8.158158
2009-09-21 07:22:31 51°16.815 2°52.678 19.2039 0.027595 0.144953 8.158158
2009-09-21 07:22:36 51°16.829 2°52.667 19.2158 0.027595 0.144953 8.158158
2009-09-21 07:22:41 51°16.843 2°52.657 19.2119 0.027595 0.144956 8.192982
2009-09-21 07:22:45 51°16.854 2°52.649 19.2249 0.027595 0.144958 8.158158
2009-09-21 07:22:51 51°16.871 2°52.638 19.221 0.027595 0.14496 8.158158
2009-09-21 07:22:56 51°16.885 2°52.629 19.2377 0.027595 0.144963 8.158158
2009-09-21 07:23:01 51°16.899 2°52.619 19.2259 0.027595 0.144965 8.158158
2009-09-21 07:23:05 51°16.91 2°52.612 19.21 0.027595 0.144965 8.158158
2009-09-21 07:23:11 51°16.927 2°52.601 19.2197 0.027595 0.144965 8.158158
2009-09-21 07:23:16 51°16.941 2°52.593 19.228 0.027595 0.144967 8.158158
2009-09-21 07:23:21 51°16.955 2°52.584 19.222 0.027595 0.14497 8.158158
2009-09-21 07:23:25 51°16.967 2°52.577 19.2182 0.027595 0.144972 8.158158
2009-09-21 07:23:30 51°16.981 2°52.568 19.2345 0.027595 0.144974 8.158158
2009-09-21 07:23:36 51°16.998 2°52.557 19.2177 0.027595 0.144974 8.158158
2009-09-21 07:23:41 51°17.012 2°52.548 19.2241 0.027595 0.144976 8.158158
2009-09-21 07:23:45 51°17.023 2°52.541 19.2166 0.027595 0.144976 8.158158
2009-09-21 07:23:50 51°17.037 2°52.532 19.2109 0.027595 0.144979 8.158158
2009-09-21 07:23:56 51°17.054 2°52.522 19.2219 0.027595 0.144981 8.158158
2009-09-21 07:24:01 51°17.069 2°52.513 19.2372 0.027595 0.144983 8.158158
2009-09-21 07:24:05 51°17.08 2°52.506 19.2296 0.027595 0.144983 8.158158
2009-09-21 07:24:10 51°17.094 2°52.497 19.2309 0.027595 0.144988 8.158158
2009-09-21 07:24:16 51°17.111 2°52.487 19.234 0.027595 0.14499 8.158158
2009-09-21 07:24:21 51°17.126 2°52.478 19.2274 0.027595 0.144993 8.158158
2009-09-21 07:24:25 51°17.137 2°52.471 19.2341 0.027595 0.144995 8.158158
2009-09-21 07:24:30 51°17.151 2°52.462 19.2212 0.027595 0.144999 8.158158
2009-09-21 07:24:36 51°17.168 2°52.451 19.2311 0.027595 0.144999 8.158158
2009-09-21 07:24:41 51°17.182 2°52.442 19.2248 0.027595 0.145004 8.158158
2009-09-21 07:24:45 51°17.194 2°52.435 19.2461 0.027595 0.145009 8.158158
2009-09-21 07:24:51 51°17.211 2°52.424 19.2356 0.027595 0.145011 8.158158
2009-09-21 07:24:56 51°17.225 2°52.415 19.2436 0.027595 0.145016 8.158158
2009-09-21 07:25:01 51°17.239 2°52.406 19.2409 0.027595 0.14502 8.158158
2009-09-21 07:25:05 51°17.25 2°52.399 19.2426 0.027595 0.14502 8.158158
2009-09-21 07:25:11 51°17.267 2°52.388 19.2329 0.027595 0.145025 8.158158
2009-09-21 07:25:16 51°17.281 2°52.379 19.219 0.027595 0.145032 8.158158
2009-09-21 07:25:21 51°17.296 2°52.37 19.2037 0.027595 0.145039 8.158158
2009-09-21 07:25:25 51°17.307 2°52.363 19.2412 0.027595 0.145046 8.158158
2009-09-21 07:25:31 51°17.324 2°52.352 19.2397 0.027595 0.145052 8.158158
2009-09-21 07:25:36 51°17.339 2°52.343 19.2248 0.027595 0.145052 8.158158
2009-09-21 07:25:41 51°17.353 2°52.334 19.237 0.027595 0.145059 8.158158
2009-09-21 07:25:45 51°17.364 2°52.327 19.2324 0.027595 0.145069 8.158158
2009-09-21 07:25:51 51°17.381 2°52.316 19.2434 0.027595 0.145078 8.158158
2009-09-21 07:25:56 51°17.396 2°52.307 19.2226 0.027595 0.145087 8.158158
2009-09-21 07:26:01 51°17.41 2°52.298 19.2264 0.027595 0.145096 8.158158
2009-09-21 07:26:05 51°17.421 2°52.29 19.2424 0.027595 0.145096 8.158158
2009-09-21 07:26:10 51°17.436 2°52.281 19.2379 0.027595 0.145101 8.158158
2009-09-21 07:26:16 51°17.453 2°52.269 19.2323 0.027595 0.145108 8.158158
2009-09-21 07:26:21 51°17.467 2°52.26 19.2184 0.027595 0.145115 8.158158
2009-09-21 07:26:25 51°17.478 2°52.252 19.2453 0.027595 0.145119 8.158158
2009-09-21 07:26:30 51°17.493 2°52.243 19.2469 0.027595 0.145124 8.158158
2009-09-21 07:26:36 51°17.51 2°52.232 19.2396 0.027595 0.145124 8.158158
2009-09-21 07:26:41 51°17.524 2°52.222 19.2403 0.027595 0.145129 8.158158
2009-09-21 07:26:45 51°17.536 2°52.215 19.2442 0.027595 0.145129 8.158158
2009-09-21 07:26:51 51°17.553 2°52.204 19.2406 0.027595 0.145133 8.158158
2009-09-21 07:26:56 51°17.567 2°52.195 19.2254 0.027595 0.145138 8.158158
2009-09-21 07:27:01 51°17.581 2°52.185 19.2469 0.027595 0.14514 8.158158
2009-09-21 07:27:05 51°17.593 2°52.178 19.243 0.027595 0.14514 8.158158
2009-09-21 07:27:11 51°17.61 2°52.167 19.258 0.027595 0.145143 8.158158
2009-09-21 07:27:16 51°17.624 2°52.158 19.2441 0.027595 0.145145 8.158158
2009-09-21 07:27:21 51°17.638 2°52.149 19.2357 0.027595 0.145147 8.158158
2009-09-21 07:27:25 51°17.65 2°52.142 19.2534 0.027595 0.145152 8.158158
2009-09-21 07:27:31 51°17.667 2°52.131 19.2517 0.027595 0.145154 8.158158
2009-09-21 07:27:36 51°17.681 2°52.121 19.2519 0.027595 0.145154 8.158158
2009-09-21 07:27:41 51°17.695 2°52.112 19.2455 0.027595 0.145159 8.158158
2009-09-21 07:27:45 51°17.706 2°52.105 19.2377 0.027595 0.145163 8.158158
2009-09-21 07:27:51 51°17.723 2°52.094 19.2445 0.027595 0.145168 8.158158
2009-09-21 07:27:56 51°17.737 2°52.085 19.232 0.027595 0.145173 8.158158
2009-09-21 07:28:01 51°17.751 2°52.076 19.2637 0.027595 0.145175 8.158158
2009-09-21 07:28:05 51°17.763 2°52.069 19.2671 0.027595 0.145175 8.158158
2009-09-21 07:28:11 51°17.78 2°52.058 19.2523 0.027595 0.14518 8.158158
2009-09-21 07:28:16 51°17.794 2°52.049 19.25 0.027595 0.145182 8.158158
2009-09-21 07:28:21 51°17.808 2°52.039 19.2571 0.027595 0.145184 8.158158
2009-09-21 07:28:25 51°17.82 2°52.032 19.2469 0.027595 0.145189 8.158158
2009-09-21 07:28:30 51°17.834 2°52.023 19.2521 0.027595 0.145196 8.158158
2009-09-21 07:28:36 51°17.851 2°52.012 19.2574 0.027595 0.145196 8.158158
2009-09-21 07:28:41 51°17.865 2°52.002 19.2395 0.027595 0.145203 8.158158
2009-09-21 07:28:45 51°17.877 2°51.995 19.2452 0.027595 0.145205 8.158158
2009-09-21 07:28:50 51°17.891 2°51.986 19.2657 0.027595 0.145212 8.158158
2009-09-21 07:28:56 51°17.908 2°51.975 19.2645 0.027595 0.145217 8.158158
2009-09-21 07:29:01 51°17.922 2°51.965 19.2678 0.027595 0.145219 8.158158
2009-09-21 07:29:05 51°17.934 2°51.958 19.2492 0.027595 0.145219 8.158158
2009-09-21 07:29:11 51°17.951 2°51.947 19.2515 0.027595 0.145223 8.158158
2009-09-21 07:29:16 51°17.965 2°51.937 19.2655 0.027595 0.145223 8.158158
2009-09-21 07:29:21 51°17.979 2°51.928 19.2588 0.027595 0.145226 8.158158
2009-09-21 07:29:25 51°17.99 2°51.921 19.259 0.027595 0.14523 8.158158
2009-09-21 07:29:31 51°18.008 2°51.909 19.265 0.027595 0.145233 8.158158
2009-09-21 07:29:36 51°18.022 2°51.9 19.2646 0.027595 0.145233 8.158158
2009-09-21 07:29:41 51°18.036 2°51.89 19.2828 0.027595 0.145235 8.158158
2009-09-21 07:29:45 51°18.048 2°51.883 19.2652 0.027595 0.145235 8.158158
2009-09-21 07:29:51 51°18.065 2°51.872 19.2731 0.027595 0.145237 8.158158
2009-09-21 07:29:56 51°18.079 2°51.862 19.2703 0.027595 0.14524 8.158158
2009-09-21 07:30:01 51°18.093 2°51.853 19.2746 0.027595 0.145242 8.158158
2009-09-21 07:30:05 51°18.105 2°51.846 19.2686 0.027595 0.145242 8.158158
2009-09-21 07:30:11 51°18.122 2°51.834 19.2816 0.027595 0.145244 8.158158
2009-09-21 07:30:16 51°18.137 2°51.825 19.2659 0.027595 0.145244 8.158158
2009-09-21 07:30:21 51°18.151 2°51.815 19.2722 0.027595 0.145247 8.158158
2009-09-21 07:30:25 51°18.163 2°51.808 19.2738 0.027595 0.145249 8.158158
2009-09-21 07:30:31 51°18.18 2°51.796 19.279 0.027595 0.145251 8.158158
2009-09-21 07:30:36 51°18.194 2°51.786 19.253 0.027595 0.145251 8.158158
2009-09-21 07:30:41 51°18.209 2°51.777 19.2801 0.027595 0.145251 8.158158
2009-09-21 07:30:45 51°18.22 2°51.769 19.2727 0.027595 0.145254 8.158158
2009-09-21 07:30:50 51°18.235 2°51.76 19.2643 0.027595 0.145254 8.158158
2009-09-21 07:30:56 51°18.252 2°51.749 19.2693 0.027595 0.145258 8.158158
2009-09-21 07:31:01 51°18.267 2°51.739 19.2769 0.027595 0.145258 8.158158
2009-09-21 07:31:05 51°18.279 2°51.732 19.2906 0.027595 0.145258 8.158158
2009-09-21 07:31:10 51°18.293 2°51.722 19.2711 0.027595 0.145258 8.158158
2009-09-21 07:31:16 51°18.31 2°51.711 19.2705 0.027595 0.14526 8.158158
2009-09-21 07:31:21 51°18.325 2°51.701 19.2799 0.027595 0.145263 8.158158
2009-09-21 07:31:25 51°18.336 2°51.693 19.2825 0.027595 0.145265 8.158158
2009-09-21 07:31:31 51°18.354 2°51.681 19.2809 0.027595 0.14527 8.158158
2009-09-21 07:31:36 51°18.368 2°51.672 19.2672 0.027595 0.14527 8.158158
2009-09-21 07:31:41 51°18.382 2°51.662 19.2831 0.027595 0.145272 8.158158
2009-09-21 07:31:45 51°18.394 2°51.654 19.2789 0.027595 0.145274 8.158158
2009-09-21 07:31:51 51°18.411 2°51.643 19.2715 0.027595 0.145279 8.158158
2009-09-21 07:31:56 51°18.426 2°51.633 19.2661 0.027595 0.145284 8.158158
2009-09-21 07:32:01 51°18.44 2°51.624 19.2853 0.027595 0.145286 8.158158
2009-09-21 07:32:05 51°18.452 2°51.616 19.2806 0.027595 0.145286 8.158158
2009-09-21 07:32:11 51°18.47 2°51.604 19.292 0.027595 0.145291 8.158158
2009-09-21 07:32:16 51°18.484 2°51.594 19.2868 0.027595 0.145293 8.158158
2009-09-21 07:32:21 51°18.498 2°51.584 19.284 0.027595 0.145298 8.158158
2009-09-21 07:32:25 51°18.509 2°51.576 19.2723 0.027595 0.145302 8.158158
2009-09-21 07:32:31 51°18.526 2°51.564 19.2723 0.027595 0.145304 8.158158
2009-09-21 07:32:36 51°18.541 2°51.554 19.2898 0.027595 0.145304 8.158158
2009-09-21 07:32:41 51°18.555 2°51.544 19.2893 0.027595 0.145307 8.158158
2009-09-21 07:32:45 51°18.567 2°51.536 19.2849 0.027595 0.145307 8.158158
2009-09-21 07:32:51 51°18.585 2°51.525 19.2736 0.027595 0.145309 8.158158
2009-09-21 07:32:56 51°18.599 2°51.515 19.2824 0.027595 0.145309 8.158158
2009-09-21 07:33:01 51°18.614 2°51.505 19.2865 0.027595 0.145309 8.158158
2009-09-21 07:33:05 51°18.626 2°51.498 19.2973 0.027595 0.145309 8.158158
2009-09-21 07:33:11 51°18.643 2°51.486 19.294 0.027595 0.145309 8.158158
2009-09-21 07:33:16 51°18.658 2°51.476 19.2848 0.027595 0.145311 8.158158
2009-09-21 07:33:21 51°18.672 2°51.467 19.289 0.027595 0.145314 8.158158
2009-09-21 07:33:25 51°18.684 2°51.459 19.298 0.027595 0.145314 8.158158
2009-09-21 07:33:31 51°18.701 2°51.447 19.3073 0.027595 0.145316 8.158158
2009-09-21 07:33:35 51°18.713 2°51.439 19.2899 0.027595 0.145316 8.158158
2009-09-21 07:33:41 51°18.73 2°51.428 19.304 0.027595 0.145316 8.123334
2009-09-21 07:33:45 51°18.742 2°51.42 19.2991 0.027595 0.145318 8.158158
2009-09-21 07:33:51 51°18.759 2°51.408 19.3025 0.027595 0.145321 8.158158
2009-09-21 07:33:56 51°18.773 2°51.398 19.2934 0.027595 0.145323 8.158158
2009-09-21 07:34:01 51°18.787 2°51.388 19.2827 0.027595 0.145325 8.158158
2009-09-21 07:34:05 51°18.798 2°51.38 19.2974 0.027595 0.145325 8.158158
2009-09-21 07:34:11 51°18.815 2°51.368 19.2969 0.027595 0.145325 8.158158
2009-09-21 07:34:16 51°18.83 2°51.359 19.2963 0.027595 0.145328 8.158158
2009-09-21 07:34:21 51°18.844 2°51.349 19.291 0.027595 0.145332 8.158158
2009-09-21 07:34:25 51°18.856 2°51.341 19.3143 0.027595 0.145335 8.158158
2009-09-21 07:34:31 51°18.873 2°51.33 19.2914 0.027595 0.145339 8.158158
2009-09-21 07:34:36 51°18.888 2°51.32 19.3085 0.027595 0.145339 8.158158
2009-09-21 07:34:41 51°18.902 2°51.31 19.2962 0.027595 0.145344 8.158158
2009-09-21 07:34:45 51°18.913 2°51.302 19.3063 0.027595 0.145351 8.158158
2009-09-21 07:34:51 51°18.93 2°51.289 19.3071 0.027595 0.145358 8.123334
2009-09-21 07:34:56 51°18.944 2°51.279 19.3035 0.027595 0.14536 8.158158
2009-09-21 07:35:01 51°18.959 2°51.269 19.3005 0.027595 0.145367 8.158158
2009-09-21 07:35:05 51°18.97 2°51.261 19.3155 0.027595 0.145367 8.158158
2009-09-21 07:35:11 51°18.987 2°51.249 19.3062 0.027595 0.145372 8.123334
2009-09-21 07:35:16 51°19.002 2°51.238 19.3233 0.027595 0.145374 8.158158
2009-09-21 07:35:21 51°19.016 2°51.228 19.3185 0.027595 0.145379 8.123334
2009-09-21 07:35:25 51°19.028 2°51.22 19.3125 0.027595 0.145383 8.158158
2009-09-21 07:35:30 51°19.042 2°51.21 19.308 0.027595 0.145388 8.123334
2009-09-21 07:35:36 51°19.06 2°51.199 19.305 0.027595 0.145388 8.123334
2009-09-21 07:35:41 51°19.075 2°51.189 19.3192 0.027595 0.145388 8.158158
2009-09-21 07:35:45 51°19.086 2°51.181 19.315 0.027595 0.145393 8.158158
2009-09-21 07:35:51 51°19.104 2°51.169 19.3174 0.027595 0.145395 8.158158
2009-09-21 07:35:56 51°19.118 2°51.159 19.3136 0.027595 0.1454 8.123334
2009-09-21 07:36:01 51°19.132 2°51.149 19.3136 0.027595 0.145404 8.158158
2009-09-21 07:36:05 51°19.144 2°51.141 19.3213 0.027595 0.145404 8.158158
2009-09-21 07:36:11 51°19.162 2°51.129 19.3247 0.027595 0.145407 8.158158
2009-09-21 07:36:16 51°19.176 2°51.118 19.331 0.027595 0.145409 8.158158
2009-09-21 07:36:21 51°19.19 2°51.108 19.3126 0.027595 0.145409 8.123334
2009-09-21 07:36:25 51°19.201 2°51.099 19.3005 0.027595 0.145411 8.158158
2009-09-21 07:36:31 51°19.218 2°51.087 19.3266 0.027595 0.145414 8.158158
2009-09-21 07:36:36 51°19.233 2°51.077 19.3116 0.027595 0.145414 8.158158
2009-09-21 07:36:41 51°19.247 2°51.067 19.3304 0.027595 0.145414 8.158158
2009-09-21 07:36:45 51°19.258 2°51.059 19.3339 0.027595 0.145416 8.123334
2009-09-21 07:36:51 51°19.276 2°51.047 19.3127 0.027595 0.145416 8.123334
2009-09-21 07:36:56 51°19.29 2°51.036 19.3243 0.027595 0.145418 8.123334
2009-09-21 07:37:01 51°19.305 2°51.026 19.3261 0.027595 0.14542 8.123334
2009-09-21 07:37:05 51°19.316 2°51.018 19.3166 0.027595 0.14542 8.123334
2009-09-21 07:37:11 51°19.333 2°51.006 19.3302 0.027595 0.14542 8.123334
2009-09-21 07:37:16 51°19.348 2°50.996 19.3242 0.027595 0.145423 8.123334
2009-09-21 07:37:21 51°19.363 2°50.986 19.3252 0.027595 0.145427 8.158158
2009-09-21 07:37:25 51°19.374 2°50.978 19.3221 0.027595 0.14543 8.158158
2009-09-21 07:37:30 51°19.389 2°50.968 19.3221 0.027595 0.145432 8.158158
2009-09-21 07:37:36 51°19.407 2°50.956 19.323 0.027595 0.145432 8.158158
2009-09-21 07:37:41 51°19.421 2°50.946 19.3385 0.027595 0.145434 8.123334
2009-09-21 07:37:45 51°19.433 2°50.938 19.3381 0.027595 0.145437 8.123334
2009-09-21 07:37:50 51°19.447 2°50.929 19.3268 0.027595 0.145437 8.123334
2009-09-21 07:37:56 51°19.465 2°50.918 19.3286 0.027595 0.145439 8.158158
2009-09-21 07:38:01 51°19.479 2°50.908 19.3312 0.027595 0.145441 8.123334
2009-09-21 07:38:05 51°19.491 2°50.901 19.3325 0.027595 0.145441 8.123334
2009-09-21 07:38:11 51°19.509 2°50.89 19.3423 0.027595 0.145444 8.123334
2009-09-21 07:38:16 51°19.524 2°50.88 19.3281 0.027595 0.145446 8.123334
2009-09-21 07:38:21 51°19.538 2°50.871 19.3375 0.027595 0.145446 8.123334
2009-09-21 07:38:25 51°19.55 2°50.863 19.3455 0.027595 0.145448 8.158158
2009-09-21 07:38:31 51°19.568 2°50.852 19.3422 0.027595 0.145448 8.123334
2009-09-21 07:38:36 51°19.582 2°50.842 19.3484 0.027595 0.145448 8.123334
2009-09-21 07:38:41 51°19.597 2°50.832 19.3204 0.027595 0.145448 8.123334
2009-09-21 07:38:45 51°19.609 2°50.824 19.3416 0.027595 0.145451 8.123334
2009-09-21 07:38:51 51°19.626 2°50.811 19.3521 0.027595 0.145451 8.123334
2009-09-21 07:38:56 51°19.641 2°50.801 19.3454 0.027595 0.145451 8.123334
2009-09-21 07:39:01 51°19.655 2°50.791 19.3536 0.027595 0.145448 8.123334
2009-09-21 07:39:05 51°19.666 2°50.782 19.3449 0.027595 0.145448 8.123334
2009-09-21 07:39:11 51°19.683 2°50.769 19.3488 0.027595 0.145451 8.123334
2009-09-21 07:39:16 51°19.697 2°50.758 19.3468 0.027595 0.145453 8.123334
2009-09-21 07:39:21 51°19.711 2°50.747 19.335 0.027595 0.145455 8.123334
2009-09-21 07:39:25 51°19.722 2°50.739 19.3379 0.027595 0.145458 8.123334
2009-09-21 07:39:30 51°19.736 2°50.728 19.3549 0.027595 0.14546 8.123334
2009-09-21 07:39:36 51°19.754 2°50.715 19.3453 0.027595 0.14546 8.123334
2009-09-21 07:39:41 51°19.768 2°50.704 19.3407 0.027595 0.145465 8.123334
2009-09-21 07:39:45 51°19.779 2°50.696 19.3603 0.027595 0.145469 8.123334
2009-09-21 07:39:50 51°19.793 2°50.685 19.3528 0.027595 0.145474 8.123334
2009-09-21 07:39:56 51°19.81 2°50.672 19.3557 0.027595 0.145476 8.123334
2009-09-21 07:40:01 51°19.825 2°50.661 19.3429 0.027595 0.145481 8.123334
2009-09-21 07:40:05 51°19.836 2°50.652 19.3595 0.027595 0.145481 8.123334
2009-09-21 07:40:11 51°19.853 2°50.64 19.3493 0.027595 0.145483 8.123334
2009-09-21 07:40:16 51°19.868 2°50.629 19.3636 0.027595 0.145488 8.123334
2009-09-21 07:40:21 51°19.882 2°50.618 19.3637 0.027595 0.14549 8.123334
2009-09-21 07:40:25 51°19.893 2°50.61 19.3628 0.027595 0.14549 8.123334
2009-09-21 07:40:31 51°19.91 2°50.597 19.36 0.027595 0.145497 8.123334
2009-09-21 07:40:36 51°19.925 2°50.586 19.3569 0.027595 0.145497 8.123334
2009-09-21 07:40:41 51°19.939 2°50.575 19.35 0.027595 0.145499 8.123334
2009-09-21 07:40:45 51°19.95 2°50.566 19.3714 0.027595 0.145504 8.123334
2009-09-21 07:40:51 51°19.968 2°50.553 19.3408 0.027595 0.145504 8.123334
2009-09-21 07:40:56 51°19.982 2°50.543 19.3539 0.027595 0.145509 8.123334
2009-09-21 07:41:01 51°19.996 2°50.532 19.36 0.027595 0.145511 8.123334
2009-09-21 07:41:05 51°20.008 2°50.523 19.3643 0.027595 0.145511 8.123334
2009-09-21 07:41:11 51°20.025 2°50.51 19.3506 0.027595 0.145511 8.123334
2009-09-21 07:41:16 51°20.04 2°50.499 19.369 0.027595 0.145513 8.123334
2009-09-21 07:41:21 51°20.054 2°50.489 19.3524 0.027595 0.145518 8.123334
2009-09-21 07:41:25 51°20.066 2°50.48 19.3785 0.027595 0.14552 8.123334
2009-09-21 07:41:31 51°20.083 2°50.467 19.3546 0.027595 0.145523 8.123334
2009-09-21 07:41:36 51°20.098 2°50.457 19.361 0.027595 0.145523 8.123334
2009-09-21 07:41:41 51°20.112 2°50.446 19.3602 0.027595 0.145525 8.123334
2009-09-21 07:41:45 51°20.124 2°50.438 19.375 0.027595 0.145527 8.123334
2009-09-21 07:41:50 51°20.139 2°50.427 19.3764 0.027595 0.145527 8.123334
2009-09-21 07:41:56 51°20.156 2°50.415 19.375 0.027595 0.14553 8.123334
2009-09-21 07:42:01 51°20.171 2°50.404 19.3574 0.027595 0.145534 8.123334
2009-09-21 07:42:05 51°20.183 2°50.396 19.376 0.027595 0.145534 8.123334
2009-09-21 07:42:10 51°20.198 2°50.386 19.3732 0.027595 0.145534 8.123334
2009-09-21 07:42:16 51°20.215 2°50.373 19.3722 0.027595 0.145539 8.123334
2009-09-21 07:42:21 51°20.23 2°50.362 19.3832 0.027595 0.145544 8.123334
2009-09-21 07:42:25 51°20.241 2°50.354 19.3746 0.027595 0.145548 8.123334
2009-09-21 07:42:31 51°20.259 2°50.341 19.3725 0.027595 0.145551 8.123334
2009-09-21 07:42:36 51°20.273 2°50.33 19.3833 0.027595 0.145551 8.123334
2009-09-21 07:42:41 51°20.287 2°50.319 19.378 0.027595 0.145555 8.123334
2009-09-21 07:42:45 51°20.299 2°50.311 19.3773 0.027595 0.145558 8.123334
2009-09-21 07:42:51 51°20.316 2°50.298 19.3716 0.027595 0.14556 8.123334
2009-09-21 07:42:56 51°20.331 2°50.288 19.3795 0.027595 0.145565 8.123334
2009-09-21 07:43:01 51°20.346 2°50.278 19.3686 0.027595 0.145565 8.123334
2009-09-21 07:43:05 51°20.358 2°50.27 19.3783 0.027595 0.145565 8.123334
2009-09-21 07:43:11 51°20.375 2°50.257 19.3796 0.027595 0.145565 8.123334
2009-09-21 07:43:16 51°20.39 2°50.247 19.3827 0.027595 0.145567 8.123334
2009-09-21 07:43:21 51°20.404 2°50.236 19.3706 0.027595 0.145567 8.123334
2009-09-21 07:43:25 51°20.416 2°50.228 19.3871 0.027595 0.145567 8.123334
2009-09-21 07:43:31 51°20.433 2°50.216 19.3896 0.027595 0.145569 8.123334
2009-09-21 07:43:36 51°20.448 2°50.206 19.373 0.027595 0.145569 8.123334
2009-09-21 07:43:41 51°20.462 2°50.195 19.3837 0.027595 0.145572 8.123334
2009-09-21 07:43:45 51°20.474 2°50.187 19.3885 0.027595 0.145574 8.08851
2009-09-21 07:43:51 51°20.491 2°50.174 19.3732 0.027595 0.145576 8.123334
2009-09-21 07:43:56 51°20.505 2°50.163 19.3903 0.027595 0.145579 8.123334
2009-09-21 07:44:01 51°20.519 2°50.153 19.3766 0.027595 0.145581 8.123334
2009-09-21 07:44:05 51°20.53 2°50.144 19.3842 0.027595 0.145581 8.123334
2009-09-21 07:44:10 51°20.544 2°50.133 19.3782 0.027595 0.145583 8.123334
2009-09-21 07:44:16 51°20.561 2°50.12 19.3977 0.027595 0.145586 8.123334
2009-09-21 07:44:21 51°20.576 2°50.11 19.3879 0.027595 0.145586 8.123334
2009-09-21 07:44:25 51°20.587 2°50.102 19.388 0.027595 0.14559 8.123334
2009-09-21 07:44:30 51°20.601 2°50.091 19.3965 0.027595 0.145593 8.123334
2009-09-21 07:44:36 51°20.618 2°50.079 19.381 0.027595 0.145593 8.123334
2009-09-21 07:44:41 51°20.632 2°50.07 19.3802 0.027595 0.145595 8.123334
2009-09-21 07:44:45 51°20.644 2°50.061 19.3989 0.027595 0.145597 8.123334
2009-09-21 07:44:51 51°20.661 2°50.05 19.3942 0.027595 0.145597 8.08851
2009-09-21 07:44:56 51°20.675 2°50.04 19.4018 0.027595 0.1456 8.123334
2009-09-21 07:45:01 51°20.69 2°50.03 19.3896 0.027595 0.145602 8.123334
2009-09-21 07:45:05 51°20.701 2°50.022 19.4068 0.027595 0.145602 8.123334
2009-09-21 07:45:11 51°20.718 2°50.01 19.3819 0.027595 0.145604 8.123334
2009-09-21 07:45:16 51°20.732 2°50 19.3985 0.027595 0.145604 8.123334
2009-09-21 07:45:21 51°20.747 2°49.991 19.3957 0.027595 0.145607 8.123334
2009-09-21 07:45:25 51°20.758 2°49.983 19.4036 0.027595 0.145609 8.123334
2009-09-21 07:45:31 51°20.775 2°49.971 19.4027 0.027595 0.145611 8.123334
2009-09-21 07:45:36 51°20.79 2°49.96 19.4043 0.027595 0.145611 8.123334
2009-09-21 07:45:41 51°20.804 2°49.951 19.404 0.027595 0.145611 8.123334
2009-09-21 07:45:45 51°20.816 2°49.943 19.4085 0.027595 0.145616 8.08851
2009-09-21 07:45:51 51°20.833 2°49.931 19.4157 0.027595 0.145621 8.123334
2009-09-21 07:45:56 51°20.847 2°49.92 19.3946 0.027595 0.145625 8.123334
2009-09-21 07:46:01 51°20.861 2°49.909 19.3938 0.027595 0.145628 8.123334
2009-09-21 07:46:05 51°20.872 2°49.901 19.3991 0.027595 0.145628 8.123334
2009-09-21 07:46:11 51°20.889 2°49.887 19.3966 0.027595 0.145632 8.123334
2009-09-21 07:46:16 51°20.904 2°49.877 19.3941 0.027595 0.145637 8.123334
2009-09-21 07:46:21 51°20.918 2°49.866 19.396 0.027595 0.145639 8.123334
2009-09-21 07:46:25 51°20.929 2°49.857 19.4127 0.027595 0.145642 8.08851
2009-09-21 07:46:30 51°20.943 2°49.847 19.4094 0.027595 0.145644 8.08851
2009-09-21 07:46:36 51°20.96 2°49.835 19.4201 0.027595 0.145644 8.08851
2009-09-21 07:46:41 51°20.975 2°49.824 19.4035 0.027595 0.145646 8.08851
2009-09-21 07:46:45 51°20.986 2°49.816 19.4125 0.027595 0.145651 8.123334
2009-09-21 07:46:51 51°21.004 2°49.804 19.4202 0.027595 0.145651 8.123334
2009-09-21 07:46:56 51°21.019 2°49.795 19.4208 0.027595 0.145653 8.08851
2009-09-21 07:47:01 51°21.033 2°49.784 19.4194 0.027595 0.145656 8.123334
2009-09-21 07:47:05 51°21.045 2°49.776 19.4144 0.027595 0.145656 8.123334
2009-09-21 07:47:11 51°21.063 2°49.764 19.4233 0.027595 0.14566 8.08851
2009-09-21 07:47:16 51°21.077 2°49.755 19.405 0.027595 0.145663 8.123334
2009-09-21 07:47:21 51°21.091 2°49.744 19.4292 0.027595 0.145665 8.123334
2009-09-21 07:47:25 51°21.103 2°49.736 19.4272 0.027595 0.145669 8.08851
2009-09-21 07:47:31 51°21.12 2°49.723 19.4085 0.027595 0.145672 8.08851
2009-09-21 07:47:36 51°21.135 2°49.713 19.4387 0.027595 0.145672 8.08851
2009-09-21 07:47:41 51°21.149 2°49.702 19.4069 0.027595 0.145674 8.08851
2009-09-21 07:47:45 51°21.161 2°49.694 19.4142 0.027595 0.145676 8.123334
2009-09-21 07:47:51 51°21.178 2°49.681 19.4289 0.027595 0.145679 8.123334
2009-09-21 07:47:56 51°21.192 2°49.671 19.4351 0.027595 0.145683 8.08851
2009-09-21 07:48:01 51°21.207 2°49.66 19.4143 0.027595 0.145686 8.123334
2009-09-21 07:48:05 51°21.219 2°49.652 19.4334 0.027595 0.145686 8.123334
2009-09-21 07:48:11 51°21.236 2°49.639 19.4255 0.027595 0.14569 8.08851
2009-09-21 07:48:16 51°21.251 2°49.629 19.4296 0.027595 0.145695 8.123334
2009-09-21 07:48:21 51°21.265 2°49.619 19.4326 0.027595 0.1457 8.08851
2009-09-21 07:48:25 51°21.277 2°49.611 19.4395 0.027595 0.145702 8.08851
2009-09-21 07:48:31 51°21.294 2°49.598 19.4301 0.027595 0.145704 8.08851
2009-09-21 07:48:36 51°21.309 2°49.587 19.4226 0.027595 0.145704 8.08851
2009-09-21 07:48:41 51°21.324 2°49.577 19.4369 0.027595 0.145707 8.08851
2009-09-21 07:48:45 51°21.335 2°49.568 19.4418 0.027595 0.145707 8.08851
2009-09-21 07:48:50 51°21.35 2°49.558 19.4408 0.027595 0.145709 8.08851
2009-09-21 07:48:56 51°21.368 2°49.545 19.4259 0.027595 0.145709 8.08851
2009-09-21 07:49:01 51°21.383 2°49.534 19.4406 0.027595 0.145709 8.08851
2009-09-21 07:49:05 51°21.394 2°49.525 19.4453 0.027595 0.145709 8.08851
2009-09-21 07:49:11 51°21.412 2°49.513 19.4484 0.027595 0.145709 8.08851
2009-09-21 07:49:16 51°21.427 2°49.502 19.4275 0.027595 0.145711 8.08851
2009-09-21 07:49:21 51°21.441 2°49.491 19.455 0.027595 0.145716 8.08851
2009-09-21 07:49:25 51°21.453 2°49.482 19.4531 0.027595 0.145719 8.08851
2009-09-21 07:49:31 51°21.47 2°49.469 19.4288 0.027595 0.145721 8.08851
2009-09-21 07:49:36 51°21.485 2°49.457 19.4567 0.027595 0.145721 8.08851
2009-09-21 07:49:41 51°21.499 2°49.446 19.4452 0.027595 0.145723 8.08851
2009-09-21 07:49:45 51°21.511 2°49.436 19.4346 0.027595 0.145728 8.08851
2009-09-21 07:49:51 51°21.528 2°49.422 19.4466 0.027595 0.14573 8.08851
2009-09-21 07:49:56 51°21.542 2°49.41 19.4439 0.027595 0.145737 8.08851
2009-09-21 07:50:01 51°21.557 2°49.399 19.464 0.027595 0.14574 8.08851
2009-09-21 07:50:05 51°21.568 2°49.39 19.454 0.027595 0.14574 8.08851
2009-09-21 07:50:11 51°21.585 2°49.376 19.4418 0.027595 0.145742 8.08851
2009-09-21 07:50:16 51°21.6 2°49.365 19.454 0.027595 0.145747 8.08851
2009-09-21 07:50:21 51°21.615 2°49.353 19.448 0.027595 0.145749 8.08851
2009-09-21 07:50:26 51°21.63 2°49.343 19.454 0.027595 0.145751 8.08851
2009-09-21 07:50:31 51°21.644 2°49.332 19.4536 0.027595 0.145751 8.08851
2009-09-21 07:50:36 51°21.659 2°49.32 19.4341 0.027595 0.145751 8.08851
2009-09-21 07:50:41 51°21.674 2°49.309 19.4612 0.027595 0.145756 8.08851
2009-09-21 07:50:45 51°21.685 2°49.301 19.4659 0.027595 0.145756 8.08851
2009-09-21 07:50:51 51°21.703 2°49.287 19.4602 0.027595 0.145756 8.08851
2009-09-21 07:50:56 51°21.718 2°49.276 19.452 0.027595 0.145758 8.08851
2009-09-21 07:51:01 51°21.732 2°49.265 19.4642 0.027595 0.145758 8.08851
2009-09-21 07:51:05 51°21.744 2°49.256 19.4621 0.027595 0.145758 8.08851
2009-09-21 07:51:11 51°21.762 2°49.243 19.47 0.027595 0.145761 8.08851
2009-09-21 07:51:16 51°21.777 2°49.231 19.456 0.027595 0.145763 8.08851
2009-09-21 07:51:21 51°21.791 2°49.221 19.4491 0.027595 0.145763 8.08851
2009-09-21 07:51:25 51°21.803 2°49.212 19.4611 0.027595 0.145765 8.08851
2009-09-21 07:51:31 51°21.821 2°49.199 19.4663 0.027595 0.145768 8.08851
2009-09-21 07:51:36 51°21.836 2°49.188 19.4606 0.027595 0.145768 8.08851
2009-09-21 07:51:41 51°21.851 2°49.178 19.4616 0.027595 0.14577 8.08851
2009-09-21 07:51:45 51°21.862 2°49.169 19.4607 0.027595 0.145772 8.08851
2009-09-21 07:51:51 51°21.88 2°49.156 19.4734 0.027595 0.145775 8.08851
2009-09-21 07:51:56 51°21.895 2°49.145 19.4772 0.027595 0.145775 8.08851
2009-09-21 07:52:01 51°21.91 2°49.134 19.4798 0.027595 0.145775 8.08851
2009-09-21 07:52:05 51°21.921 2°49.125 19.4667 0.027595 0.145775 8.08851
2009-09-21 07:52:11 51°21.939 2°49.112 19.4598 0.027595 0.145779 8.08851
2009-09-21 07:52:16 51°21.954 2°49.101 19.4805 0.027595 0.145779 8.08851
2009-09-21 07:52:21 51°21.969 2°49.091 19.4891 0.027595 0.145779 8.08851
2009-09-21 07:52:25 51°21.981 2°49.082 19.4564 0.027595 0.145782 8.08851
2009-09-21 07:52:31 51°21.999 2°49.069 19.4881 0.027595 0.145782 8.08851
2009-09-21 07:52:36 51°22.014 2°49.058 19.4824 0.027595 0.145782 8.08851
2009-09-21 07:52:41 51°22.028 2°49.047 19.4718 0.027595 0.145782 8.08851
2009-09-21 07:52:46 51°22.043 2°49.036 19.4831 0.027595 0.145782 8.08851
2009-09-21 07:52:51 51°22.058 2°49.025 19.4683 0.027595 0.145784 8.08851
2009-09-21 07:52:56 51°22.073 2°49.014 19.4653 0.027595 0.145784 8.08851
2009-09-21 07:53:01 51°22.088 2°49.004 19.4889 0.027595 0.145784 8.08851
2009-09-21 07:53:05 51°22.1 2°48.996 19.4669 0.027595 0.145784 8.08851
2009-09-21 07:53:11 51°22.118 2°48.983 19.4832 0.027595 0.145784 8.08851
2009-09-21 07:53:16 51°22.133 2°48.972 19.4668 0.027595 0.145786 8.08851
2009-09-21 07:53:21 51°22.148 2°48.961 19.4828 0.027595 0.145789 8.08851
2009-09-21 07:53:25 51°22.16 2°48.953 19.495 0.027595 0.145791 8.08851
2009-09-21 07:53:31 51°22.178 2°48.94 19.4787 0.027595 0.145796 8.08851
2009-09-21 07:53:36 51°22.193 2°48.929 19.4831 0.027595 0.145796 8.08851
2009-09-21 07:53:41 51°22.208 2°48.919 19.4891 0.027595 0.145798 8.08851
2009-09-21 07:53:45 51°22.22 2°48.91 19.4972 0.027595 0.1458 8.08851
2009-09-21 07:53:51 51°22.238 2°48.898 19.4971 0.027595 0.145803 8.08851
2009-09-21 07:53:56 51°22.253 2°48.887 19.4949 0.027595 0.145805 8.08851
2009-09-21 07:54:01 51°22.268 2°48.876 19.4954 0.027595 0.145807 8.08851
2009-09-21 07:54:05 51°22.28 2°48.868 19.4695 0.027595 0.145807 8.08851
2009-09-21 07:54:11 51°22.298 2°48.855 19.4928 0.027595 0.145807 8.08851
2009-09-21 07:54:16 51°22.313 2°48.845 19.4949 0.027595 0.145807 8.08851
2009-09-21 07:54:21 51°22.327 2°48.835 19.4969 0.027595 0.14581 8.08851
2009-09-21 07:54:25 51°22.339 2°48.826 19.5004 0.027595 0.14581 8.08851
2009-09-21 07:54:31 51°22.357 2°48.813 19.5049 0.027595 0.145812 8.08851
2009-09-21 07:54:36 51°22.371 2°48.803 19.4862 0.027595 0.145812 8.08851
2009-09-21 07:54:41 51°22.386 2°48.792 19.5031 0.027595 0.145812 8.08851
2009-09-21 07:54:45 51°22.398 2°48.784 19.5006 0.027595 0.145812 8.08851
2009-09-21 07:54:51 51°22.415 2°48.771 19.5031 0.027595 0.145814 8.08851
2009-09-21 07:54:56 51°22.43 2°48.762 19.5062 0.027595 0.145814 8.08851
2009-09-21 07:55:01 51°22.445 2°48.751 19.5002 0.027595 0.145814 8.08851
2009-09-21 07:55:06 51°22.46 2°48.741 19.4954 0.027595 0.145814 8.08851
2009-09-21 07:55:11 51°22.476 2°48.731 19.5003 0.027492 0.145274 8.08851
2009-09-21 07:55:16 51°22.491 2°48.721 19.5026 0.027595 0.145817 8.08851
2009-09-21 07:55:21 51°22.506 2°48.711 19.5085 0.027595 0.145817 8.08851
2009-09-21 07:55:25 51°22.518 2°48.704 19.4987 0.027595 0.145814 8.08851
2009-09-21 07:55:31 51°22.535 2°48.691 19.5114 0.027595 0.145817 8.053686
2009-09-21 07:55:36 51°22.55 2°48.681 19.5007 0.027595 0.145817 8.053686
2009-09-21 07:55:41 51°22.564 2°48.671 19.5156 0.027595 0.145817 8.08851
2009-09-21 07:55:45 51°22.575 2°48.663 19.5102 0.027492 0.145276 8.053686
2009-09-21 07:55:50 51°22.59 2°48.652 19.5071 0.027492 0.145276 8.08851
2009-09-21 07:55:56 51°22.607 2°48.641 19.5067 0.027595 0.145821 8.053686
2009-09-21 07:56:01 51°22.622 2°48.631 19.5196 0.027492 0.145279 8.08851
2009-09-21 07:56:05 51°22.633 2°48.623 19.5121 0.027492 0.145279 8.08851
2009-09-21 07:56:11 51°22.65 2°48.611 19.5184 0.027595 0.145824 8.08851
2009-09-21 07:56:16 51°22.664 2°48.601 19.5073 0.027492 0.145283 8.08851
2009-09-21 07:56:21 51°22.679 2°48.591 19.5305 0.027595 0.145828 8.08851
2009-09-21 07:56:25 51°22.69 2°48.583 19.5061 0.027595 0.145831 8.08851
2009-09-21 07:56:31 51°22.707 2°48.571 19.5092 0.027492 0.14529 8.08851
2009-09-21 07:56:36 51°22.722 2°48.562 19.5334 0.027492 0.14529 8.08851
2009-09-21 07:56:41 51°22.736 2°48.552 19.5176 0.027492 0.145295 8.08851
2009-09-21 07:56:45 51°22.748 2°48.544 19.5171 0.027492 0.145297 8.08851
2009-09-21 07:56:51 51°22.765 2°48.532 19.5235 0.027595 0.145842 8.08851
2009-09-21 07:56:56 51°22.779 2°48.523 19.5286 0.027492 0.145302 8.053686
2009-09-21 07:57:01 51°22.794 2°48.513 19.5309 0.027595 0.145847 8.08851
2009-09-21 07:57:05 51°22.806 2°48.506 19.5252 0.027595 0.145847 8.08851
2009-09-21 07:57:11 51°22.823 2°48.494 19.5169 0.027595 0.145849 8.053686
2009-09-21 07:57:16 51°22.838 2°48.485 19.5389 0.027492 0.145311 8.08851
2009-09-21 07:57:21 51°22.852 2°48.475 19.5161 0.027492 0.145311 8.08851
2009-09-21 07:57:25 51°22.863 2°48.467 19.5249 0.027492 0.145316 8.053686
2009-09-21 07:57:31 51°22.881 2°48.454 19.5162 0.027492 0.145318 8.08851
2009-09-21 07:57:36 51°22.895 2°48.444 19.5153 0.027492 0.145318 8.08851
2009-09-21 07:57:41 51°22.909 2°48.434 19.5364 0.027492 0.145321 8.08851
2009-09-21 07:57:45 51°22.921 2°48.426 19.5399 0.027492 0.145321 8.08851
2009-09-21 07:57:51 51°22.938 2°48.415 19.5396 0.027492 0.145323 8.053686
2009-09-21 07:57:56 51°22.953 2°48.405 19.5257 0.027492 0.145325 8.053686
2009-09-21 07:58:01 51°22.967 2°48.396 19.5421 0.027492 0.145325 8.053686
2009-09-21 07:58:05 51°22.979 2°48.389 19.5186 0.027492 0.145325 8.053686
2009-09-21 07:58:10 51°22.994 2°48.379 19.5331 0.027492 0.145328 8.053686
2009-09-21 07:58:16 51°23.011 2°48.368 19.5332 0.027492 0.14533 8.053686
2009-09-21 07:58:21 51°23.026 2°48.359 19.534 0.027492 0.14533 8.053686
2009-09-21 07:58:25 51°23.037 2°48.351 19.5471 0.027492 0.145332 8.08851
2009-09-21 07:58:31 51°23.055 2°48.34 19.5502 0.027492 0.145332 8.053686
2009-09-21 07:58:36 51°23.069 2°48.33 19.5548 0.027492 0.145332 8.053686
2009-09-21 07:58:41 51°23.084 2°48.321 19.5404 0.027492 0.145332 8.08851
2009-09-21 07:58:45 51°23.096 2°48.313 19.5415 0.027492 0.145332 8.053686
2009-09-21 07:58:51 51°23.113 2°48.301 19.5571 0.027492 0.145332 8.053686
2009-09-21 07:58:56 51°23.127 2°48.291 19.5355 0.027492 0.145335 8.053686
2009-09-21 07:59:01 51°23.142 2°48.281 19.5366 0.027492 0.145337 8.053686
2009-09-21 07:59:05 51°23.154 2°48.274 19.556 0.027492 0.145337 8.053686
2009-09-21 07:59:11 51°23.171 2°48.261 19.5513 0.027492 0.145339 8.053686
2009-09-21 07:59:16 51°23.185 2°48.251 19.5381 0.027492 0.145344 8.053686
2009-09-21 07:59:21 51°23.2 2°48.24 19.5417 0.027492 0.145349 8.053686
2009-09-21 07:59:25 51°23.211 2°48.232 19.5578 0.027492 0.145351 8.053686
2009-09-21 07:59:31 51°23.228 2°48.22 19.5597 0.027492 0.145353 8.053686
2009-09-21 07:59:36 51°23.243 2°48.21 19.558 0.027492 0.145353 8.053686
2009-09-21 07:59:41 51°23.257 2°48.199 19.5463 0.027492 0.145356 8.053686
2009-09-21 07:59:45 51°23.268 2°48.19 19.5583 0.027492 0.145356 8.053686
2009-09-21 07:59:51 51°23.285 2°48.177 19.5493 0.027492 0.145356 8.053686
2009-09-21 07:59:56 51°23.3 2°48.166 19.5596 0.027492 0.14536 8.08851
2009-09-21 08:00:01 51°23.314 2°48.156 19.5645 0.027492 0.145363 8.053686
2009-09-21 08:00:05 51°23.325 2°48.147 19.569 0.027492 0.145363 8.053686
2009-09-21 08:00:11 51°23.342 2°48.134 19.5673 0.027492 0.145367 8.053686
2009-09-21 08:00:16 51°23.356 2°48.123 19.5408 0.027492 0.14537 8.053686
2009-09-21 08:00:21 51°23.371 2°48.112 19.5465 0.027492 0.145372 8.053686
2009-09-21 08:00:25 51°23.382 2°48.103 19.5718 0.027492 0.145374 8.053686
2009-09-21 08:00:30 51°23.396 2°48.093 19.5544 0.027492 0.145374 8.053686
2009-09-21 08:00:36 51°23.414 2°48.08 19.5551 0.027492 0.145374 8.053686
2009-09-21 08:00:41 51°23.428 2°48.07 19.5605 0.027492 0.145377 8.053686
2009-09-21 08:00:45 51°23.439 2°48.061 19.5689 0.027492 0.145379 8.053686
2009-09-21 08:00:51 51°23.457 2°48.049 19.5608 0.027492 0.145381 8.053686
2009-09-21 08:00:56 51°23.471 2°48.038 19.5616 0.027492 0.145386 8.053686
2009-09-21 08:01:01 51°23.485 2°48.027 19.5712 0.027492 0.145391 8.053686
2009-09-21 08:01:05 51°23.497 2°48.018 19.5632 0.027492 0.145391 8.053686
2009-09-21 08:01:11 51°23.514 2°48.005 19.558 0.027492 0.145393 8.053686
2009-09-21 08:01:16 51°23.529 2°47.994 19.5751 0.027492 0.145398 8.053686
2009-09-21 08:01:21 51°23.543 2°47.984 19.5722 0.027492 0.1454 8.053686
2009-09-21 08:01:25 51°23.555 2°47.976 19.5647 0.027492 0.145402 8.053686
2009-09-21 08:01:31 51°23.572 2°47.963 19.5649 0.027492 0.145405 8.053686
2009-09-21 08:01:36 51°23.587 2°47.952 19.5774 0.027492 0.145405 8.053686
2009-09-21 08:01:41 51°23.601 2°47.942 19.5762 0.027492 0.145407 8.053686
2009-09-21 08:01:45 51°23.613 2°47.933 19.5794 0.027492 0.145409 8.053686
2009-09-21 08:01:51 51°23.63 2°47.921 19.5717 0.027492 0.145412 8.053686
2009-09-21 08:01:56 51°23.645 2°47.911 19.5867 0.027492 0.145412 8.053686
2009-09-21 08:02:01 51°23.659 2°47.9 19.588 0.027492 0.145414 8.053686
2009-09-21 08:02:05 51°23.671 2°47.892 19.5926 0.027492 0.145414 8.053686
2009-09-21 08:02:11 51°23.688 2°47.879 19.5673 0.027492 0.145416 8.053686
2009-09-21 08:02:16 51°23.703 2°47.868 19.5869 0.027492 0.145419 8.053686
2009-09-21 08:02:21 51°23.717 2°47.856 19.5851 0.027492 0.145421 8.053686
2009-09-21 08:02:25 51°23.728 2°47.848 19.5786 0.027492 0.145423 8.053686
2009-09-21 08:02:31 51°23.746 2°47.835 19.5689 0.027492 0.145426 8.053686
2009-09-21 08:02:36 51°23.76 2°47.824 19.582 0.027492 0.145426 8.053686
2009-09-21 08:02:41 51°23.775 2°47.814 19.5983 0.027492 0.145428 8.053686
2009-09-21 08:02:45 51°23.786 2°47.805 19.5882 0.027492 0.145426 8.053686
2009-09-21 08:02:50 51°23.801 2°47.795 19.595 0.027492 0.145428 8.053686
2009-09-21 08:02:56 51°23.818 2°47.782 19.5819 0.027492 0.14543 8.053686
2009-09-21 08:03:01 51°23.832 2°47.771 19.5747 0.027492 0.145433 8.053686
2009-09-21 08:03:05 51°23.844 2°47.763 19.5838 0.027492 0.145433 8.053686
2009-09-21 08:03:11 51°23.861 2°47.75 19.5891 0.027492 0.145433 8.053686
2009-09-21 08:03:16 51°23.876 2°47.74 19.5922 0.027492 0.145437 8.053686
2009-09-21 08:03:21 51°23.89 2°47.73 19.6001 0.027492 0.14544 8.053686
2009-09-21 08:03:25 51°23.902 2°47.721 19.5863 0.027492 0.145444 8.053686
2009-09-21 08:03:31 51°23.919 2°47.708 19.5928 0.027492 0.145447 8.053686
2009-09-21 08:03:36 51°23.934 2°47.698 19.5966 0.027492 0.145447 8.053686
2009-09-21 08:03:41 51°23.948 2°47.687 19.5934 0.027492 0.145449 8.053686
2009-09-21 08:03:45 51°23.959 2°47.679 19.6016 0.027492 0.145454 8.053686
2009-09-21 08:03:51 51°23.977 2°47.667 19.5908 0.027492 0.145454 8.053686
2009-09-21 08:03:56 51°23.991 2°47.656 19.5659 0.027492 0.145456 8.053686
2009-09-21 08:04:01 51°24.006 2°47.645 19.6001 0.027492 0.145458 8.053686
2009-09-21 08:04:05 51°24.018 2°47.637 19.5889 0.027492 0.145458 8.053686
2009-09-21 08:04:11 51°24.035 2°47.624 19.6057 0.027492 0.145458 8.053686
2009-09-21 08:04:16 51°24.049 2°47.613 19.6072 0.027492 0.145461 8.053686
2009-09-21 08:04:21 51°24.064 2°47.603 19.5941 0.027492 0.145463 8.053686
2009-09-21 08:04:25 51°24.075 2°47.595 19.6006 0.027492 0.145463 8.053686
2009-09-21 08:04:31 51°24.093 2°47.582 19.5992 0.027492 0.145465 8.053686
2009-09-21 08:04:36 51°24.107 2°47.571 19.606 0.027492 0.145465 8.053686
2009-09-21 08:04:41 51°24.122 2°47.561 19.6073 0.027492 0.145468 8.053686
2009-09-21 08:04:45 51°24.133 2°47.552 19.6043 0.027492 0.145472 8.053686
2009-09-21 08:04:50 51°24.148 2°47.542 19.61 0.027492 0.145472 8.053686
2009-09-21 08:04:56 51°24.165 2°47.529 19.5983 0.027492 0.145475 8.053686
2009-09-21 08:05:01 51°24.179 2°47.518 19.6035 0.027492 0.145477 8.053686
2009-09-21 08:05:05 51°24.191 2°47.51 19.6177 0.027492 0.145477 8.053686
2009-09-21 08:05:11 51°24.208 2°47.497 19.6205 0.027492 0.145477 8.053686
2009-09-21 08:05:16 51°24.223 2°47.486 19.6021 0.027492 0.145479 8.053686
2009-09-21 08:05:21 51°24.237 2°47.475 19.6171 0.027492 0.145479 8.053686
2009-09-21 08:05:25 51°24.248 2°47.466 19.6116 0.027492 0.145482 8.053686
2009-09-21 08:05:31 51°24.266 2°47.453 19.6068 0.027492 0.145486 8.053686
2009-09-21 08:05:36 51°24.28 2°47.442 19.6148 0.027492 0.145486 8.053686
2009-09-21 08:05:41 51°24.294 2°47.432 19.6295 0.027492 0.145489 8.053686
2009-09-21 08:05:45 51°24.305 2°47.423 19.6221 0.027492 0.145489 8.053686
2009-09-21 08:05:51 51°24.323 2°47.411 19.6246 0.027492 0.145491 8.053686
2009-09-21 08:05:56 51°24.337 2°47.4 19.6199 0.027492 0.145493 8.053686
2009-09-21 08:06:01 51°24.351 2°47.39 19.6084 0.027492 0.145496 8.053686
2009-09-21 08:06:05 51°24.363 2°47.381 19.6154 0.027492 0.145496 8.053686
2009-09-21 08:06:11 51°24.38 2°47.369 19.6189 0.027492 0.145498 8.053686
2009-09-21 08:06:16 51°24.395 2°47.358 19.6187 0.027492 0.145498 8.053686
2009-09-21 08:06:21 51°24.409 2°47.348 19.6236 0.027492 0.145503 8.053686
2009-09-21 08:06:25 51°24.42 2°47.339 19.6309 0.027492 0.145503 8.053686
2009-09-21 08:06:31 51°24.438 2°47.326 19.6202 0.027492 0.145507 8.053686
2009-09-21 08:06:36 51°24.452 2°47.315 19.6255 0.027492 0.145507 8.053686
2009-09-21 08:06:41 51°24.466 2°47.304 19.632 0.027492 0.145507 8.053686
2009-09-21 08:06:45 51°24.478 2°47.296 19.631 0.027492 0.145512 8.053686
2009-09-21 08:06:51 51°24.495 2°47.283 19.6356 0.027492 0.145514 8.053686
2009-09-21 08:06:56 51°24.51 2°47.272 19.6157 0.027492 0.145514 8.053686
2009-09-21 08:07:01 51°24.524 2°47.261 19.6462 0.027492 0.145512 8.053686
2009-09-21 08:07:05 51°24.536 2°47.253 19.6389 0.027492 0.145512 8.053686
2009-09-21 08:07:10 51°24.55 2°47.242 19.6408 0.027492 0.145512 8.018862
2009-09-21 08:07:16 51°24.567 2°47.23 19.6332 0.027492 0.145517 8.053686
2009-09-21 08:07:21 51°24.581 2°47.219 19.6274 0.027492 0.145519 8.053686
2009-09-21 08:07:25 51°24.593 2°47.21 19.6369 0.027492 0.145521 8.053686
2009-09-21 08:07:31 51°24.61 2°47.197 19.6464 0.027492 0.145524 8.053686
2009-09-21 08:07:36 51°24.624 2°47.186 19.6461 0.027492 0.145524 8.053686
2009-09-21 08:07:41 51°24.639 2°47.175 19.6411 0.027492 0.145526 8.053686
2009-09-21 08:07:45 51°24.65 2°47.167 19.6417 0.027492 0.145526 8.053686
2009-09-21 08:07:51 51°24.667 2°47.153 19.6394 0.027492 0.145528 8.018862
2009-09-21 08:07:56 51°24.681 2°47.142 19.6394 0.027492 0.145531 8.053686
2009-09-21 08:08:01 51°24.696 2°47.132 19.6495 0.027492 0.145535 8.053686
2009-09-21 08:08:05 51°24.707 2°47.123 19.6545 0.027492 0.145535 8.053686
2009-09-21 08:08:11 51°24.724 2°47.109 19.6393 0.027492 0.145538 8.053686
2009-09-21 08:08:16 51°24.739 2°47.099 19.6414 0.027492 0.145538 8.053686
2009-09-21 08:08:21 51°24.753 2°47.088 19.638 0.027492 0.14554 8.053686
2009-09-21 08:08:25 51°24.765 2°47.079 19.6382 0.027492 0.145545 8.053686
2009-09-21 08:08:31 51°24.782 2°47.066 19.6582 0.027492 0.145549 8.053686
2009-09-21 08:08:36 51°24.796 2°47.055 19.6401 0.027492 0.145549 8.053686
2009-09-21 08:08:41 51°24.81 2°47.043 19.6491 0.027492 0.145552 8.053686
2009-09-21 08:08:45 51°24.821 2°47.034 19.6583 0.027492 0.145554 8.053686
2009-09-21 08:08:51 51°24.838 2°47.022 19.6654 0.027492 0.145556 8.053686
2009-09-21 08:08:56 51°24.852 2°47.011 19.6342 0.027492 0.145559 8.053686
2009-09-21 08:09:01 51°24.867 2°47 19.6658 0.027492 0.145596 8.018862
2009-09-21 08:09:05 51°24.878 2°46.991 19.6673 0.027492 0.145596 8.018862
2009-09-21 08:09:11 51°24.894 2°46.977 19.644 0.027492 0.145606 8.053686
2009-09-21 08:09:16 51°24.909 2°46.966 19.6544 0.027492 0.145613 8.053686
2009-09-21 08:09:21 51°24.923 2°46.955 19.6493 0.027492 0.145617 8.018862
2009-09-21 08:09:25 51°24.934 2°46.947 19.6694 0.027492 0.145622 8.018862
2009-09-21 08:09:30 51°24.948 2°46.936 19.6681 0.027492 0.145627 8.053686
2009-09-21 08:09:36 51°24.965 2°46.923 19.6484 0.027492 0.145627 8.053686
2009-09-21 08:09:41 51°24.979 2°46.913 19.6644 0.027492 0.145629 8.053686
2009-09-21 08:09:45 51°24.99 2°46.905 19.6587 0.027492 0.145634 8.053686
2009-09-21 08:09:51 51°25.007 2°46.892 19.6718 0.027492 0.145646 8.053686
2009-09-21 08:09:56 51°25.021 2°46.881 19.6739 0.027492 0.145648 8.018862
2009-09-21 08:10:01 51°25.035 2°46.871 19.6517 0.027492 0.14565 8.053686
2009-09-21 08:10:05 51°25.047 2°46.862 19.6754 0.027492 0.14565 8.053686
2009-09-21 08:10:11 51°25.064 2°46.85 19.666 0.027492 0.14565 8.018862
2009-09-21 08:10:16 51°25.078 2°46.839 19.6581 0.027595 0.146199 8.018862
2009-09-21 08:10:21 51°25.092 2°46.828 19.6633 0.027492 0.145657 8.053686
2009-09-21 08:10:25 51°25.103 2°46.82 19.6726 0.027595 0.146206 8.053686
2009-09-21 08:10:31 51°25.12 2°46.807 19.6672 0.027595 0.146206 8.053686
2009-09-21 08:10:36 51°25.134 2°46.797 19.6754 0.027595 0.146206 8.053686
2009-09-21 08:10:41 51°25.148 2°46.786 19.6659 0.027492 0.145667 8.053686
2009-09-21 08:10:45 51°25.159 2°46.778 19.6642 0.027595 0.146211 8.018862
2009-09-21 08:10:51 51°25.176 2°46.764 19.6674 0.027492 0.145669 8.053686
2009-09-21 08:10:56 51°25.19 2°46.754 19.6823 0.027492 0.145669 8.018862
2009-09-21 08:11:01 51°25.204 2°46.743 19.6701 0.027492 0.145671 8.053686
2009-09-21 08:11:05 51°25.216 2°46.735 19.6866 0.027492 0.145671 8.053686
2009-09-21 08:11:11 51°25.233 2°46.722 19.6812 0.027492 0.145676 8.018862
2009-09-21 08:11:16 51°25.247 2°46.712 19.6777 0.027492 0.145681 8.018862
2009-09-21 08:11:21 51°25.261 2°46.701 19.6555 0.027492 0.145685 8.018862
2009-09-21 08:11:25 51°25.272 2°46.693 19.6842 0.027595 0.146234 8.018862
2009-09-21 08:11:31 51°25.289 2°46.68 19.6824 0.027492 0.145692 8.018862
2009-09-21 08:11:36 51°25.303 2°46.67 19.6781 0.027492 0.145692 8.018862
2009-09-21 08:11:41 51°25.317 2°46.659 19.6772 0.027492 0.145695 8.053686
2009-09-21 08:11:45 51°25.329 2°46.651 19.6879 0.027492 0.145699 8.053686
2009-09-21 08:11:51 51°25.346 2°46.639 19.6856 0.027595 0.146246 8.018862
2009-09-21 08:11:56 51°25.36 2°46.628 19.6812 0.027492 0.145704 8.018862
2009-09-21 08:12:01 51°25.374 2°46.617 19.6924 0.027492 0.145706 8.018862
2009-09-21 08:12:05 51°25.385 2°46.608 19.6822 0.027492 0.145706 8.018862
2009-09-21 08:12:11 51°25.402 2°46.596 19.702 0.027492 0.145709 8.018862
2009-09-21 08:12:16 51°25.416 2°46.585 19.702 0.027492 0.145709 8.018862
2009-09-21 08:12:21 51°25.431 2°46.575 19.6754 0.027492 0.145716 8.018862
2009-09-21 08:12:25 51°25.442 2°46.566 19.703 0.027492 0.14573 8.018862
2009-09-21 08:12:31 51°25.459 2°46.553 19.6952 0.027492 0.145746 8.018862
2009-09-21 08:12:36 51°25.473 2°46.543 19.7002 0.027492 0.145746 8.018862
2009-09-21 08:12:41 51°25.487 2°46.532 19.6982 0.027492 0.145746 8.018862
2009-09-21 08:12:45 51°25.498 2°46.523 19.6862 0.027595 0.146293 8.018862
2009-09-21 08:12:51 51°25.515 2°46.51 19.7059 0.027492 0.145749 8.053686
2009-09-21 08:12:56 51°25.528 2°46.499 19.6831 0.027492 0.145746 8.018862
2009-09-21 08:13:01 51°25.542 2°46.488 19.6919 0.027492 0.145744 8.018862
2009-09-21 08:13:05 51°25.554 2°46.48 19.7126 0.027492 0.145744 8.018862
2009-09-21 08:13:11 51°25.57 2°46.467 19.7105 0.027492 0.145753 8.018862
2009-09-21 08:13:16 51°25.584 2°46.456 19.6855 0.027595 0.146308 8.018862
2009-09-21 08:13:21 51°25.598 2°46.444 19.7134 0.027595 0.146312 8.018862